GFSFLT1_prec_cloud_003.txt.gz
Cloud_Cover
3 0 3 5 0 3 9 5 5 1 85 72 40 100 75 44 21 98 5 5 41 53 67 6 5 3 2 5 3 1 1 4
0 0 0 5 4 1 5 5 0 9 5 96 83 92 29 36 50 74 70 13 25 100 5 4 1 0 0 5 5 5 5 5
0 0 0 13 60 26 98 12 55 13 2 20 42 95 77 93 83 88 38 14 54 5 6 0 0 3 5 5 3 2 4 5
0 0 0 0 5 40 99 100 81 20 27 10 89 35 8 27 64 96 86 52 82 62 6 6 5 5 5 5 3 0 4 11
0 0 0 0 0 0 5 47 98 83 57 56 8 5 17 92 76 6 27 6 5 19 15 9 5 2 5 5 5 10 34 22
0 0 0 0 0 0 4 5 5 24 74 8 51 36 7 6 15 16 6 6 6 6 8 38 100 100 98 91 19 5 0 0
1 0 0 0 4 5 5 5 5 36 89 100 100 100 100 100 98 82 84 92 100 100 100 100 87 100 100 100 98 5 5 5
0 0 5 3 3 5 92 100 100 3 5 5 5 5 5 5 20 92 96 72 52 71 43 38 70 47 22 10 4 5 5 5
5 5 15 59 51 84 52 100 100 100 68 60 68 87 90 98 99 100 98 98 93 72 6 0 0 0 4 8 15 6 97 82
3 3 5 83 27 68 32 31 13 67 95 90 78 99 100 58 95 100 31 8 83 7 29 2 2 38 9 6 10 1 8 5
39 5 2 4 5 5 5 5 5 65 5 40 85 100 100 100 99 6 5 8 61 98 18 0 0 0 0 0 0 0 0 3
5 3 0 1 5 6 5 5 14 5 38 93 54 44 19 6 5 5 5 2 1 0 0 0 0 3 0 0 0 0 0 1
5 2 5 56 90 9 5 5 5 5 10 48 95 93 36 50 29 5 5 1 0 0 0 0 0 0 0 0 3 5 3 5
5 50 53 21 37 77 6 9 55 77 100 86 13 5 41 100 100 99 100 100 100 83 0 0 0 0 4 3 5 2 5 5
5 5 7 8 22 8 74 100 100 72 5 5 5 4 6 99 73 27 90 100 92 1 1 0 0 2 5 5 0 0 4 5
5 5 5 12 36 36 42 80 15 5 0 0 0 5 47 40 87 49 100 100 100 100 86 0 5 5 4 5 31 8 5 5
5 5 5 5 5 65 18 5 5 5 4 0 0 0 5 5 79 100 100 94 33 100 35 5 0 5 5 84 36 74 88 78
5 5 5 5 6 5 5 5 3 3 5 1 0 2 6 54 46 100 100 100 91 100 7 16 5 5 52 75 76 30 5 5
5 5 5 5 5 5 5 5 5 5 5 0 2 0 0 5 40 100 100 100 100 1 100 6 5 17 24 4 5 7 77 96

GFSFLT1_prec_cloud_006.txt.gz
Cloud_Cover
2 29 35 3 1 5 50 18 5 86 96 19 5 8 18 8 75 8 47 5 82 94 65 91 21 5 2 0 0 3 5 5
19 23 5 2 5 44 42 100 100 44 5 5 4 5 5 6 98 66 78 75 36 95 26 5 5 2 0 0 2 0 3 5
2 2 27 96 14 11 79 58 5 5 5 3 4 5 45 80 73 75 76 90 28 16 21 4 2 2 0 0 0 0 0 1
68 53 32 0 0 0 0 5 5 5 6 31 42 76 89 99 56 5 93 68 8 5 5 0 1 3 5 5 5 8 5 3
99 80 73 0 0 0 0 1 4 5 5 39 100 100 95 8 5 5 5 5 5 5 5 5 11 15 5 24 51 63 92 60
100 100 97 0 0 0 0 3 5 5 14 55 52 58 5 5 5 5 7 61 16 5 80 100 100 100 5 5 5 5 29 81
2 1 2 1 0 0 5 0 7 30 26 88 91 44 17 11 44 73 31 35 47 68 76 90 95 39 63 41 2 2 5 21
88 5 5 0 5 38 86 49 14 5 4 1 5 5 26 9 57 98 100 45 100 47 100 99 61 7 0 0 5 5 66 99
10 0 0 0 3 21 66 96 67 40 19 29 12 49 100 100 100 85 100 100 100 37 11 5 78 12 0 3 0 0 0 1
5 0 5 5 5 4 5 74 92 53 23 8 98 100 100 99 96 3 2 1 5 5 7 6 1 0 0 0 0 0 0 0
5 5 5 3 7 82 100 90 52 75 76 5 10 4 2 1 0 3 69 56 53 96 96 97 31 20 71 12 99 0 0 0
73 18 8 5 29 23 7 5 4 5 5 2 1 9 22 28 6 5 6 31 100 100 100 100 100 100 60 83 9 0 0 0
94 100 6 5 5 5 9 5 4 3 5 5 19 6 5 5 5 10 10 17 79 100 100 100 100 100 12 0 0 5 47 65
53 26 70 5 5 5 5 5 5 5 5 5 5 5 0 0 0 4 8 69 99 100 95 100 100 100 100 62 1 5 5 5
74 5 5 5 5 5 6 48 90 16 5 5 5 0 0 0 28 88 100 100 93 100 100 100 100 100 28 2 5 5 5 14
98 96 26 5 20 36 24 7 5 5 5 5 5 0 0 0 7 5 84 100 60 98 100 100 100 6 5 5 5 6 94 38
100 32 5 6 12 56 5 5 5 5 5 0 0 0 0 0 0 5 40 85 97 100 100 98 2 3 5 5 5 5 0 5
94 17 21 33 7 14 7 10 5 1 1 2 5 5 0 0 2 11 24 55 92 100 99 26 5 5 3 5 5 5 17 5
86 44 70 71 22 5 5 4 5 5 5 3 5 0 1 0 38 86 100 99 90 95 10 5 5 3 4 5 28 85 90 68

GFSFLT1_prec_cloud_009.txt.gz
Cloud_Cover
3 45 89 63 10 50 81 100 100 100 100 100 81 36 73 78 47 68 100 78 35 74 88 47 14 5 3 2 1 0 0 0
5 5 36 5 5 5 6 6 61 65 43 14 4 5 5 5 37 43 70 100 100 65 5 5 5 2 0 0 0 0 0 0
95 84 100 15 1 3 50 4 9 51 1 0 2 18 50 70 96 98 99 59 5 5 5 4 1 0 0 4 5 5 5 4
100 93 44 5 40 14 27 2 0 5 0 8 4 5 6 69 29 11 5 4 2 0 0 0 2 3 5 5 5 5 5 5
20 14 5 88 44 5 1 0 0 0 2 5 5 84 99 38 5 0 0 0 0 0 5 5 5 6 76 44 30 5 5 17
84 100 99 56 46 5 0 0 0 5 6 90 100 97 5 0 0 2 5 6 5 5 6 13 99 100 72 35 16 0 0 4
9 99 81 100 82 7 0 2 5 5 22 4 1 0 1 2 5 7 34 75 41 70 100 68 69 83 86 96 95 0 0 1
100 100 22 17 2 0 4 74 44 3 0 0 1 3 6 48 50 36 87 98 88 72 14 4 5 6 5 4 5 4 4 6
100 72 5 3 0 0 0 0 0 5 5 5 4 5 6 13 97 95 86 40 4 5 14 92 84 100 99 100 100 82 10 75
0 1 5 5 5 5 0 2 5 5 5 5 5 5 61 74 69 11 4 0 2 48 98 99 100 100 100 100 97 100 58 1
5 5 5 5 5 5 5 5 16 5 5 5 5 5 5 5 5 0 0 4 50 41 60 86 100 77 96 100 90 91 69 88
53 43 63 51 92 86 88 92 76 5 5 10 6 5 2 3 3 0 0 33 100 100 62 81 96 100 100 100 99 100 100 78
90 90 100 100 93 100 100 76 69 76 5 5 0 5 4 0 0 0 18 100 99 98 85 76 92 100 72 17 46 100 100 86
43 100 100 98 61 100 100 100 78 5 5 5 5 0 0 0 0 0 0 0 1 43 12 5 5 89 74 97 99 94 6 5
75 80 99 78 100 100 87 43 5 5 3 1 0 0 0 0 0 0 0 3 22 10 13 5 29 100 100 5 4 5 5 53
83 86 74 100 100 99 71 6 5 5 5 0 5 5 5 3 0 0 5 77 92 5 5 68 98 58 8 4 5 5 5 5
100 100 100 98 40 5 5 5 5 5 5 5 5 5 5 0 0 5 5 82 79 92 95 100 98 5 5 5 5 5 5 40
100 99 31 61 5 5 5 5 5 11 12 27 6 5 5 0 0 5 5 28 97 93 56 5 62 8 40 5 6 72 98 86
73 6 16 5 5 5 5 37 100 88 56 75 59 5 5 0 0 5 5 41 5 5 5 24 45 98 5 5 26 68 28 15

GFSFLT1_prec_cloud_012.txt.gz
Cloud_Cover
7 57 78 100 98 100 77 94 100 100 100 100 100 100 100 100 100 72 5 14 91 84 97 98 9 4 5 4 0 0 0 0
5 5 17 88 11 95 100 100 100 95 100 100 100 97 48 10 43 5 5 99 65 5 33 4 1 0 0 0 0 0 0 0
60 62 31 5 7 6 83 11 20 35 68 16 10 5 4 2 5 5 5 5 42 5 4 0 0 0 1 5 5 5 5 5
43 85 79 7 10 9 5 2 4 0 3 0 3 5 1 5 3 1 2 1 0 0 0 1 1 5 5 5 17 5 5 26
100 95 95 74 95 64 29 89 92 42 5 5 5 5 5 0 0 0 0 4 3 5 5 5 5 5 6 36 6 12 35 14
52 98 63 89 100 100 92 57 5 5 4 2 1 0 0 0 0 0 5 5 5 5 39 86 17 5 6 59 21 3 5 2
6 92 100 100 100 80 8 2 5 1 0 0 0 0 1 1 2 3 5 5 5 5 5 9 60 21 5 21 87 50 5 3
4 76 77 41 27 3 5 4 2 1 0 5 5 5 5 5 4 5 11 4 3 16 30 7 5 5 68 73 96 100 100 86
85 59 2 5 5 5 5 5 5 5 5 5 4 0 3 0 0 4 5 6 5 5 2 1 4 66 44 75 100 97 86 58
5 0 5 1 5 5 5 39 85 60 5 5 5 5 5 5 6 26 5 5 4 1 5 5 99 73 94 98 100 100 92 18
5 5 5 5 5 5 14 51 89 11 78 45 56 65 5 5 5 5 5 0 0 0 10 82 85 62 91 99 84 5 79 52
5 5 5 11 5 43 100 61 72 100 100 93 23 5 0 5 2 4 4 0 0 19 87 29 50 97 5 5 19 29 3 0
5 5 80 72 100 100 92 84 100 100 95 5 5 5 5 5 5 3 0 1 5 2 18 95 100 83 80 5 35 38 5 0
5 72 100 98 94 74 98 100 100 99 5 5 5 16 8 5 5 2 5 5 2 37 99 100 58 100 91 100 37 2 0 0
5 68 100 100 30 100 100 88 13 5 5 5 5 5 5 5 5 5 5 5 11 100 100 90 40 89 100 100 49 0 0 4
27 100 82 28 100 100 46 45 5 5 5 5 5 5 5 5 5 5 5 4 22 100 51 87 92 98 100 50 5 1 5 5
100 100 100 100 21 28 33 59 5 5 6 45 31 45 8 34 39 24 0 5 30 5 82 92 100 100 6 5 5 5 5 5
100 100 90 25 61 6 5 5 20 46 83 62 25 12 90 100 18 4 0 5 5 5 27 5 10 5 11 57 10 5 5 10
99 39 73 54 52 82 50 77 89 100 100 69 53 80 100 28 5 0 4 5 76 84 51 72 61 72 50 37 7 5 5 5

GFSFLT1_prec_cloud_015.txt.gz
Cloud_Cover
88 87 83 53 54 56 42 76 94 100 100 92 100 100 100 100 100 100 100 76 14 2 5 5 5 5 4 0 0 0 0 4
64 21 27 82 100 100 100 67 86 84 77 91 100 100 100 99 38 0 0 0 5 5 5 5 0 0 0 0 0 5 5 5
25 56 79 48 42 87 79 20 30 20 5 4 1 2 1 0 0 0 1 4 2 0 0 0 2 5 5 5 5 0 4 4
5 21 18 20 6 5 5 1 3 5 2 3 3 0 0 0 0 0 0 0 0 0 3 4 5 5 5 2 0 0 0 0
0 5 5 92 52 5 39 59 79 13 52 34 4 0 0 0 0 0 0 0 0 0 0 3 2 0 0 0 3 0 0 1
2 5 5 36 75 82 88 100 100 97 0 0 0 0 0 0 0 0 0 0 0 5 5 5 3 0 0 0 1 8 5 73
19 5 55 19 87 5 0 1 3 5 5 4 2 5 3 3 5 5 5 1 0 0 0 0 0 2 4 43 87 93 70 56
79 76 76 20 2 4 4 5 5 5 5 5 5 5 39 5 15 4 0 0 0 0 0 3 5 5 35 100 94 53 58 23
85 92 95 3 4 5 5 5 5 22 99 50 9 44 77 79 48 3 0 4 5 5 5 13 5 5 62 100 100 10 3 4
53 38 0 4 0 5 5 5 17 56 49 76 24 43 80 64 21 5 5 5 6 35 9 5 4 90 26 7 6 0 0 0
12 2 1 0 5 5 5 34 80 81 70 64 92 94 89 56 5 5 13 46 32 5 5 5 85 88 5 5 4 5 4 8
2 5 5 5 5 38 9 98 99 28 100 100 100 66 5 5 22 51 14 26 5 5 11 90 97 87 34 97 83 88 99 10
5 5 17 67 74 53 92 94 24 82 100 100 93 19 48 55 16 5 2 5 3 1 10 87 81 5 100 17 80 100 96 40
5 87 100 71 100 100 100 87 100 100 98 26 36 13 5 5 5 5 5 2 5 5 5 5 68 100 93 100 100 100 100 67
56 100 100 100 100 84 100 100 100 23 5 5 5 5 5 19 22 6 27 34 39 5 5 65 96 90 100 100 100 97 9 5
98 88 100 74 90 97 69 81 5 5 5 5 5 5 52 68 30 96 99 57 13 5 6 40 100 97 100 100 74 7 39 75
75 98 100 100 61 41 5 5 5 5 8 13 25 87 93 100 100 100 100 36 2 5 5 6 8 45 5 22 92 98 49 5
50 79 100 100 97 8 60 92 20 40 60 76 100 100 100 100 99 82 5 2 0 5 11 75 78 89 96 98 16 5 5 4
50 98 100 99 48 94 99 23 53 98 100 100 100 100 93 54 78 53 0 0 2 5 6 6 15 89 97 32 5 1 0 5

GFSFLT1_prec_cloud_018.txt.gz
Cloud_Cover
82 68 76 91 100 71 70 97 100 99 100 100 100 100 100 100 100 100 96 90 72 100 62 6 3 2 0 0 0 0 0 3
74 100 100 89 48 83 99 100 98 100 93 99 100 94 58 19 4 4 0 0 0 0 0 0 0 0 0 0 5 5 1 2
68 41 24 6 19 53 73 57 56 72 76 63 0 1 4 5 3 0 0 0 0 0 0 0 0 0 0 0 1 2 4 6
53 36 38 58 83 31 7 5 5 5 77 61 27 3 36 0 0 0 0 0 0 0 0 0 0 0 1 0 0 5 5 5
6 22 8 13 75 5 5 5 5 5 43 35 0 0 0 3 5 5 5 3 5 5 0 0 0 0 0 1 5 1 5 5
4 5 85 95 5 5 47 79 14 0 0 0 1 5 5 5 5 5 5 5 5 5 3 0 4 1 5 0 0 5 6 46
4 5 54 5 5 5 5 0 0 5 5 5 5 5 43 23 30 5 5 18 23 5 2 0 0 0 16 5 5 5 50 100
5 5 31 5 5 5 1 4 5 5 5 5 74 74 75 70 21 5 71 94 12 0 1 4 13 5 14 46 100 59 29 56
4 5 5 5 5 4 5 3 5 5 5 62 94 96 100 100 100 98 91 5 5 11 68 32 5 31 91 100 94 99 100 90
4 5 5 5 1 1 5 5 5 8 32 74 100 95 70 78 98 91 8 14 67 23 5 5 24 99 89 97 98 94 97 95
5 5 5 5 5 5 17 31 99 100 100 100 87 8 58 100 99 5 12 8 5 5 5 6 89 35 69 70 87 31 100 100
5 5 4 5 5 30 95 100 100 99 100 15 16 89 97 42 5 5 5 5 5 14 5 5 51 14 29 82 62 50 98 100
5 5 29 85 92 100 100 100 94 100 100 94 93 74 5 5 5 5 5 14 12 5 5 5 61 99 78 81 100 84 100 100
5 37 89 92 100 99 96 90 100 100 67 5 5 5 5 5 6 34 25 17 97 91 5 85 84 61 30 59 78 100 100 99
6 31 13 40 96 56 47 100 100 72 5 12 57 70 5 5 42 16 36 98 48 5 61 93 84 25 80 92 97 100 99 94
46 5 5 31 92 60 93 99 54 78 91 100 100 10 29 64 52 85 100 27 6 14 26 93 59 69 66 81 96 96 71 97
14 85 91 5 71 100 100 100 100 100 100 100 26 37 85 66 89 50 5 33 65 22 46 88 53 69 5 55 95 84 94 60
39 72 13 90 100 100 100 100 100 100 100 21 49 49 83 86 100 100 51 71 5 24 87 22 30 70 5 17 83 90 5 5
100 92 100 100 100 100 100 100 100 100 59 62 63 87 100 100 93 11 97 61 42 100 100 53 64 43 5 5 5 5 5 5

GFSFLT1_prec_cloud_021.txt.gz
Cloud_Cover
100 84 72 94 92 70 100 100 100 86 72 100 100 100 100 84 61 55 38 12 77 57 16 2 0 0 0 0 0 0 0 2
97 100 31 13 7 52 96 100 100 54 88 100 100 100 40 22 4 0 0 0 0 0 0 0 0 0 0 0 2 0 0 0
16 70 86 32 18 80 78 87 78 91 99 56 25 73 7 7 0 0 0 0 5 5 5 4 5 3 5 5 0 4 2 0
5 5 5 35 97 100 98 98 54 80 33 5 12 5 2 0 0 0 3 5 5 4 2 5 5 5 4 0 4 5 5 5
8 26 98 88 63 41 18 18 12 8 5 2 0 8 94 6 5 5 5 5 2 5 5 5 5 0 4 6 5 4 5 5
47 52 5 5 5 5 6 8 2 0 0 0 0 3 5 5 5 5 5 5 9 72 5 5 3 0 5 5 5 5 5 11
1 0 2 5 5 5 5 1 0 0 0 0 0 4 5 5 42 37 19 85 11 17 71 39 0 5 5 5 8 28 8 76
0 0 0 5 5 5 5 2 0 0 0 5 5 5 37 48 100 76 98 42 14 84 19 5 2 3 5 5 35 5 81 94
0 0 0 0 5 5 5 5 5 4 3 5 5 83 76 100 80 89 6 5 61 5 4 5 5 73 56 47 21 51 89 92
0 0 1 5 5 5 5 0 0 4 6 25 90 87 100 72 5 5 5 5 5 5 5 14 49 45 23 50 66 48 84 45
4 5 5 5 5 5 5 5 6 57 92 53 44 100 100 100 97 24 5 5 5 5 7 22 58 11 51 78 19 58 83 13
5 17 17 5 5 5 5 58 25 7 85 17 98 93 100 98 46 7 5 5 5 45 51 41 6 5 48 43 44 88 77 72
11 5 5 5 5 24 55 13 50 20 100 65 80 100 97 95 25 5 5 5 59 44 16 47 45 89 53 97 57 11 22 93
21 6 5 19 55 6 18 41 92 97 53 94 100 100 100 68 11 92 39 28 51 25 7 14 43 74 65 100 100 100 98 100
26 39 90 100 6 5 24 96 91 96 84 100 100 95 89 54 100 99 39 70 86 50 77 48 96 100 100 93 56 100 100 100
5 18 100 100 18 74 78 98 98 96 100 100 100 82 96 98 92 63 83 98 100 100 40 10 95 88 74 36 24 87 98 95
6 98 28 5 5 18 82 96 88 100 100 100 100 100 100 100 87 86 100 100 92 6 13 88 100 69 98 86 0 5 61 100
8 5 5 11 35 66 92 98 100 100 100 100 99 97 100 100 96 97 86 82 56 70 92 50 83 98 23 0 4 5 25 72
5 5 32 52 42 70 88 100 100 100 100 100 100 100 100 100 100 100 100 90 87 98 100 99 75 86 35 1 2 0 48 82

GFSFLT1_prec_cloud_024.txt.gz
Cloud_Cover
93 49 82 78 100 100 100 100 100 99 80 51 100 90 95 98 100 92 36 5 5 4 1 2 1 0 0 0 0 5 5 3
75 100 100 100 100 97 100 58 100 98 67 88 100 23 5 5 5 5 5 1 0 0 0 1 4 0 3 0 5 0 0 0
70 28 32 26 64 9 75 47 100 83 26 96 51 24 8 4 0 0 0 5 4 1 3 4 1 5 5 5 4 0 0 0
12 8 5 39 91 84 49 26 60 5 39 99 100 99 0 0 0 0 5 5 5 5 4 5 5 5 5 4 0 0 1 2
5 15 76 86 77 99 48 75 30 100 71 0 0 0 0 0 7 0 4 17 79 41 23 5 1 5 5 1 0 2 0 0
5 5 54 100 82 19 100 64 52 5 4 0 0 0 0 0 0 5 16 83 86 5 36 5 0 0 0 0 0 5 5 6
5 48 100 77 49 82 11 5 5 5 2 0 0 0 0 1 5 36 66 91 65 24 4 1 4 4 5 0 5 5 44 18
46 16 23 0 4 0 0 0 3 0 0 2 5 5 5 5 5 68 100 100 70 12 25 24 5 5 5 5 5 5 10 3
0 4 1 0 0 0 0 0 2 5 5 28 22 24 5 5 71 77 100 100 99 98 5 5 48 59 27 33 51 8 5 5
0 0 0 0 0 0 0 5 5 5 24 40 5 5 56 72 92 80 84 90 97 5 5 12 88 50 18 44 10 10 40 33
0 0 0 0 0 0 4 5 3 81 90 5 32 54 53 100 100 86 98 97 43 12 27 100 100 100 100 100 100 13 33 10
0 0 0 0 0 3 2 4 47 100 5 5 5 64 97 100 100 98 100 44 5 83 100 100 100 100 100 64 17 5 14 17
0 3 3 3 5 5 5 55 100 100 57 24 14 93 100 100 99 99 19 5 71 76 90 99 100 63 55 5 52 100 100 98
3 8 10 5 4 5 5 100 89 86 5 16 85 98 100 100 79 76 56 7 9 89 99 33 5 5 98 11 5 100 33 75
4 92 23 5 5 5 5 5 5 5 5 87 100 100 99 74 80 52 69 90 44 48 5 23 66 79 92 86 64 89 97 8
5 72 45 100 92 31 26 49 5 5 38 100 100 100 83 98 77 98 99 96 68 89 86 100 100 83 100 100 93 100 93 15
5 5 5 29 22 26 33 80 12 5 100 100 100 100 100 100 100 100 93 99 100 83 95 99 95 94 100 100 100 100 95 4
5 5 77 89 5 30 46 39 12 44 100 100 100 100 83 100 100 85 100 100 100 100 94 100 100 100 100 100 100 100 6 5
44 98 13 5 5 85 79 50 38 90 100 100 100 100 100 100 100 100 100 100 100 100 100 100 100 100 100 100 100 100 94 5

GFSFLT1_prec_cloud_027.txt.gz
Cloud_Cover
100 100 100 89 90 99 100 25 8 37 100 100 100 100 99 49 51 27 71 49 58 8 5 5 5 5 4 5 2 0 0 0
26 78 100 84 100 95 100 100 100 100 100 100 100 100 57 100 100 97 57 5 7 5 5 3 4 5 5 5 0 0 0 0
99 100 100 100 100 96 93 100 100 95 87 52 43 26 21 10 5 5 5 5 5 5 5 60 97 5 6 3 0 0 0 0
5 27 50 74 76 19 100 90 90 38 5 7 20 5 42 8 4 2 0 0 5 5 75 81 11 25 23 0 0 0 0 0
5 5 2 24 74 97 100 55 23 6 22 58 50 41 2 0 0 0 0 5 5 5 74 76 68 4 0 2 0 0 0 2
3 5 5 0 5 44 44 43 76 77 9 21 21 72 26 0 0 0 5 6 74 10 84 88 97 98 59 2 2 3 3 5
34 4 5 5 43 100 59 1 76 65 50 28 5 4 0 0 0 3 52 98 99 5 57 6 27 36 4 5 4 5 5 5
47 2 0 0 83 14 100 17 24 1 1 5 5 4 3 5 5 42 100 100 53 32 60 51 78 5 5 5 38 29 5 8
78 0 0 0 2 10 100 38 0 3 3 5 43 5 5 90 100 100 95 100 8 64 90 100 84 5 5 5 88 27 56 99
2 0 0 0 0 0 11 0 1 0 4 91 100 77 100 100 100 100 100 83 56 86 64 94 30 5 5 30 46 46 4 5
0 0 0 0 0 0 0 0 2 1 5 15 95 99 67 87 93 91 84 100 98 92 67 26 5 23 25 83 98 69 5 36
0 0 0 0 0 0 0 0 0 1 1 5 23 8 8 88 100 88 100 84 100 100 99 96 89 99 58 83 62 64 80 99
0 0 0 0 0 0 0 0 0 61 100 5 5 5 88 100 100 100 100 100 74 69 64 99 99 55 72 100 100 100 100 100
0 0 1 3 1 4 1 3 30 68 29 5 8 97 100 100 100 87 80 95 66 100 77 83 100 100 100 98 74 96 93 100
1 5 5 5 27 30 80 22 38 29 5 5 81 100 100 100 100 85 100 71 95 97 77 100 100 100 100 100 97 100 100 100
0 3 32 5 13 18 5 26 39 5 7 9 65 100 99 81 100 99 73 91 75 34 88 96 100 100 100 100 100 100 100 99
5 5 5 5 36 77 5 4 10 17 97 97 100 100 72 96 99 98 100 100 100 100 100 100 100 100 100 100 100 100 100 100
5 4 0 36 100 13 5 5 53 100 100 100 100 100 100 100 100 100 100 100 100 100 99 77 93 100 100 100 100 100 100 100
5 5 70 98 9 5 5 28 100 100 100 100 100 97 83 99 100 100 100 100 100 100 100 100 100 100 100 100 100 100 99 81

GFSFLT1_prec_cloud_030.txt.gz
Cloud_Cover
100 100 100 100 100 100 100 100 100 100 100 100 100 100 100 100 100 100 100 100 100 100 100 99 39 40 5 16 40 5 5 0
100 100 100 100 100 93 52 80 90 95 100 100 100 100 100 100 100 100 100 100 100 92 9 5 23 43 26 83 73 62 0 2
100 100 99 5 0 3 4 5 27 100 100 96 65 46 35 80 62 42 19 5 5 22 40 77 24 17 69 14 78 15 78 46
89 36 5 5 5 5 5 72 92 100 26 38 23 26 10 5 5 5 16 51 44 6 73 44 25 5 49 67 20 6 12 0
11 37 84 96 63 5 62 100 100 79 96 7 7 6 20 8 9 6 2 1 5 5 5 5 5 5 4 4 5 46 5 0
7 39 53 11 6 13 4 100 88 100 98 37 15 80 5 5 1 0 5 5 8 76 96 85 5 5 5 7 92 74 0 0
47 3 2 11 3 5 27 17 22 78 10 4 80 97 15 5 5 5 14 63 54 94 83 62 95 38 67 49 6 5 0 3
47 56 22 47 29 29 28 0 8 0 10 22 87 65 35 70 72 58 99 90 96 100 100 100 99 84 78 5 5 5 5 8
100 76 11 5 22 48 34 4 4 0 2 6 20 94 100 98 100 97 100 100 100 100 100 100 67 80 76 43 5 5 87 18
5 3 5 5 30 4 5 12 14 37 59 99 100 100 100 83 100 100 100 100 100 100 100 100 70 92 46 65 7 56 61 5
4 5 9 68 0 3 16 2 0 44 55 88 99 100 100 100 99 100 100 100 100 100 100 56 68 100 57 40 87 88 77 28
0 31 66 1 0 0 0 3 5 5 2 59 97 100 100 100 100 100 96 100 99 100 100 79 99 70 81 80 100 76 100 82
0 0 4 5 0 0 4 5 4 0 2 5 71 74 72 78 98 94 82 88 97 62 67 18 76 87 99 53 38 67 90 100
2 2 0 0 2 1 3 6 12 6 29 100 94 44 90 42 54 60 40 24 15 19 31 5 41 99 100 98 78 41 73 94
2 3 4 5 6 10 65 32 83 99 78 67 36 100 97 99 15 57 6 5 5 50 97 80 99 100 100 97 94 98 100 92
0 3 5 5 13 33 86 96 68 15 5 34 100 100 100 93 100 100 61 26 87 79 79 100 96 85 74 95 89 71 100 100
5 5 2 5 6 33 5 3 4 5 83 100 100 100 100 100 100 100 98 97 100 100 100 96 93 84 87 98 100 100 100 100
4 4 2 0 0 0 0 5 5 44 89 67 98 100 100 100 100 100 100 100 100 100 91 100 99 100 100 100 100 100 93 5
5 4 4 5 2 5 34 21 61 75 100 100 82 74 18 78 100 100 100 100 100 100 100 100 100 100 100 100 100 83 70 85

GFSFLT1_prec_cloud_033.txt.gz
Cloud_Cover
100 100 100 100 100 99 100 100 100 100 100 100 100 100 100 100 100 100 100 100 100 100 100 100 100 100 100 100 76 52 11 5
100 100 100 100 100 100 100 100 100 100 100 100 100 100 100 100 100 100 100 100 100 100 100 87 58 85 75 34 6 4 5 5
100 100 100 100 100 100 100 100 100 100 100 100 80 84 91 96 100 100 100 95 72 76 46 62 50 17 6 7 0 0 0 1
6 5 12 51 72 72 100 100 98 13 11 9 38 53 36 72 38 5 8 6 7 18 8 5 2 0 4 5 2 2 5 70
42 5 24 5 5 14 12 15 63 68 83 93 92 94 21 47 62 5 5 5 6 5 5 5 5 6 33 5 5 5 5 3
100 100 21 0 8 5 5 27 100 100 100 100 100 100 100 90 42 5 5 6 5 17 28 46 8 98 96 68 31 5 5 5
22 100 100 20 7 5 18 66 100 100 98 88 63 51 13 5 38 5 96 76 30 33 5 7 16 99 98 92 96 85 64 20
5 41 95 89 33 17 53 98 90 100 100 22 12 7 4 5 5 8 44 35 65 71 33 100 100 100 100 100 35 30 77 92
51 11 5 39 18 38 100 99 99 89 85 9 0 0 0 4 25 32 99 100 100 87 100 100 100 100 96 95 99 49 100 100
50 0 5 36 30 88 100 99 92 28 1 0 1 0 34 66 95 100 100 100 100 100 100 100 100 100 97 96 99 56 86 79
5 14 9 22 14 20 40 12 3 0 0 0 1 5 7 99 100 83 93 100 100 100 100 100 100 100 72 69 100 73 96 100
5 5 0 0 0 0 8 2 0 0 0 5 5 10 74 37 64 100 100 100 100 100 100 100 100 91 86 100 96 25 69 94
3 3 0 0 1 1 0 0 0 1 5 1 5 27 94 98 100 100 100 100 98 82 97 100 100 96 100 100 100 91 5 5
0 0 0 1 5 1 1 0 1 5 8 37 60 14 58 95 100 100 100 50 69 99 100 89 100 100 100 87 25 93 73 10
0 2 5 27 93 99 98 70 34 50 26 11 42 79 97 99 100 100 100 100 100 100 100 100 100 100 90 99 69 82 63 94
72 59 97 51 41 7 64 74 99 76 43 95 92 87 40 26 27 45 100 100 100 100 100 100 100 100 100 86 96 100 100 78
5 0 0 5 5 93 100 96 84 100 87 74 22 65 100 100 100 100 100 100 100 100 100 100 100 100 100 84 95 24 5 5
4 2 5 5 5 6 7 73 69 22 31 96 83 100 100 100 100 100 100 100 100 100 100 100 100 100 100 90 5 5 5 5
4 5 5 5 22 12 5 0 5 5 5 29 77 99 100 100 100 100 100 100 92 100 100 100 100 96 9 5 5 5 16 5

GFSFLT1_prec_cloud_036.txt.gz
Cloud_Cover
100 100 87 8 100 86 100 32 37 74 94 73 58 81 100 100 100 100 100 100 100 100 100 100 100 100 92 25 66 77 58 14
100 100 100 100 87 44 8 100 100 100 100 100 100 100 100 100 100 100 100 100 100 100 100 100 100 37 6 99 86 5 0 0
100 77 92 100 100 100 100 100 79 94 100 100 100 100 100 100 100 100 100 91 72 74 63 25 13 68 39 2 0 0 0 0
100 100 100 100 100 100 100 100 100 100 89 86 97 77 50 39 51 30 60 59 31 5 17 47 14 0 0 0 4 6 32 84
100 100 100 100 91 82 78 94 77 20 18 85 93 84 100 74 77 73 30 7 20 33 11 0 0 3 4 5 76 85 91 46
100 98 100 99 100 100 100 100 100 84 84 100 100 100 100 100 82 18 5 13 5 5 5 5 6 5 7 88 89 85 6 5
19 4 5 17 5 11 93 77 94 100 100 100 100 100 100 47 62 45 5 5 6 40 5 23 35 92 100 90 99 95 80 26
12 5 5 7 19 32 19 90 100 100 100 100 100 100 100 100 100 38 41 99 79 14 97 86 92 95 100 100 100 17 79 26
56 5 29 74 26 19 16 24 100 100 100 100 100 100 100 100 89 35 100 100 100 91 61 84 100 100 100 100 100 100 45 18
6 5 5 5 7 5 16 27 100 100 100 100 100 94 99 53 68 99 91 67 73 100 40 90 100 100 99 72 48 52 76 41
5 1 0 4 5 5 32 95 100 100 100 100 82 42 72 25 76 98 99 100 99 93 100 64 63 99 91 96 32 74 79 31
0 3 5 5 5 14 35 35 11 15 35 10 24 15 15 94 92 89 81 40 43 100 100 100 100 71 72 94 80 95 28 75
5 5 28 55 28 26 33 4 5 54 91 82 89 56 33 51 80 42 88 92 96 100 100 90 100 100 98 98 100 96 6 64
5 5 2 0 0 1 3 87 98 79 5 6 96 83 37 69 90 17 79 28 100 100 10 69 100 76 100 100 92 100 100 100
1 0 0 0 0 38 10 75 10 4 5 30 36 58 44 100 91 92 99 100 100 82 86 100 100 100 100 100 100 100 91 76
0 0 0 0 4 7 16 11 5 1 4 5 12 5 93 84 80 91 80 100 58 98 100 100 100 100 100 100 98 100 50 97
0 0 0 0 2 5 5 3 5 38 100 91 94 100 100 96 100 87 99 31 39 100 100 100 100 100 100 100 96 86 100 100
4 5 5 5 5 5 5 10 67 86 68 86 83 97 99 100 100 100 96 98 100 100 100 100 100 100 100 100 99 100 100 94
5 5 5 5 5 5 5 14 58 98 88 56 18 62 98 100 100 100 100 100 100 100 100 100 100 100 100 100 100 100 100 28

GFSFLT1_prec_cloud_039.txt.gz
Cloud_Cover
100 100 100 100 100 100 100 100 100 100 100 100 100 100 100 100 100 100 100 96 49 80 100 100 100 100 84 50 75 44 14 5
100 100 100 96 98 100 100 100 100 100 100 100 100 100 100 85 100 100 96 100 100 100 100 100 100 76 71 74 57 40 8 2
100 100 100 100 58 100 100 100 100 100 94 82 68 56 61 30 100 100 100 100 100 93 80 74 36 6 11 22 38 9 5 5
100 100 100 100 45 54 34 65 100 99 76 65 36 99 100 100 100 100 100 96 69 64 32 21 5 12 38 6 5 5 5 5
100 100 100 100 100 100 100 100 100 100 100 100 100 100 87 59 23 76 30 60 39 17 5 5 5 5 5 5 5 6 8 90
100 100 100 100 100 100 100 100 100 89 100 98 96 11 53 100 100 79 99 100 100 14 5 5 5 5 5 10 69 98 100 100
78 100 100 100 100 100 100 100 100 56 100 100 88 100 88 95 100 100 100 100 54 37 38 42 90 57 16 98 97 100 98 54
30 59 81 78 88 88 51 64 82 87 100 100 100 100 100 100 100 100 100 100 92 56 96 67 71 66 90 100 92 86 16 5
5 21 24 12 61 61 76 68 72 100 100 100 100 100 100 100 100 100 100 100 56 56 96 46 97 89 100 100 46 38 37 5
5 5 23 11 5 5 85 34 18 93 100 100 100 100 100 100 100 100 100 100 93 100 100 100 100 100 100 96 94 48 9 19
98 17 6 5 5 4 1 77 15 62 100 100 100 100 100 100 100 100 100 94 100 100 97 100 100 100 91 35 10 36 34 72
99 6 4 0 0 0 1 6 92 100 100 86 92 79 100 100 100 100 100 96 99 94 95 98 100 100 98 15 25 98 100 98
31 15 5 0 0 2 21 48 78 49 35 98 100 100 100 91 100 100 100 100 100 100 100 100 100 100 100 84 87 100 100 90
4 0 2 5 22 47 33 9 3 41 100 100 100 93 97 100 100 100 99 99 58 66 51 89 100 100 16 82 100 95 92 70
0 3 4 5 7 5 2 5 65 100 100 69 68 52 58 31 41 59 51 57 98 100 100 100 100 99 100 100 100 100 100 100
5 5 4 0 0 0 1 5 5 5 5 4 5 4 5 46 86 32 90 100 100 100 100 96 100 100 100 100 100 100 100 100
2 2 0 0 0 4 5 5 5 5 4 0 1 83 93 98 100 100 100 100 100 100 100 100 100 97 100 100 100 99 100 100
5 5 0 0 0 0 5 5 0 0 1 5 5 52 96 100 100 100 100 100 100 100 100 100 100 100 100 100 99 99 100 100
0 0 0 0 0 2 1 0 3 5 5 5 5 14 77 100 84 90 100 99 99 99 84 100 100 100 96 97 96 81 57 87

GFSFLT1_prec_cloud_045.txt.gz
Cloud_Cover
100 100 100 100 96 100 100 100 100 100 100 100 100 100 100 100 100 100 100 100 100 100 100 100 100 84 95 70 62 87 85 6
100 100 100 100 100 100 100 100 100 100 100 100 100 100 100 100 100 100 100 100 100 100 89 53 83 15 45 4 5 5 11 56
100 100 100 83 100 100 100 100 100 100 100 100 100 100 100 100 100 100 100 100 99 89 86 30 6 37 28 5 61 62 27 2
100 100 100 25 17 100 96 81 100 100 100 100 100 100 100 100 100 100 100 99 73 32 53 39 30 21 38 69 96 95 5 4
100 100 100 100 18 92 12 26 97 100 100 100 100 100 100 100 100 100 100 100 100 89 73 67 8 59 100 100 100 8 6 20
98 100 100 23 23 3 5 5 33 100 100 100 100 100 100 100 98 98 97 100 100 78 82 93 92 100 99 96 78 56 100 90
100 100 100 100 100 97 53 52 44 76 78 96 100 100 92 94 98 100 97 100 99 64 88 100 67 86 100 54 79 100 100 100
100 100 100 100 100 100 100 100 92 99 45 94 92 51 96 97 100 100 100 100 100 100 92 100 100 100 100 100 100 100 100 93
100 86 49 5 5 5 5 8 87 69 87 98 100 100 100 100 100 100 100 100 100 100 100 100 100 100 100 100 100 100 100 100
5 5 12 5 12 72 64 100 87 62 69 100 100 100 100 100 100 100 100 100 100 100 100 100 100 100 100 100 100 100 100 100
5 5 5 5 5 37 39 35 46 46 23 100 82 100 100 100 95 100 100 100 100 100 100 100 100 100 100 100 100 100 86 99
11 62 17 9 22 22 25 48 68 79 24 38 36 28 84 100 100 100 100 100 100 100 100 100 100 100 100 100 100 100 99 100
35 100 99 31 5 5 12 7 27 92 100 26 100 50 87 100 100 100 100 100 100 100 100 100 100 100 100 100 100 100 100 100
4 20 22 14 59 5 5 11 22 25 98 100 100 95 100 100 100 100 100 100 100 100 100 100 100 100 100 100 100 100 100 100
3 5 11 100 53 52 100 100 83 63 76 99 100 100 100 100 100 100 100 100 100 100 100 100 100 100 100 100 100 100 89 97
11 6 5 2 7 33 95 55 35 24 46 88 100 100 100 100 100 100 100 91 93 98 100 100 100 100 100 100 100 61 77 100
0 0 34 5 1 4 32 34 93 98 43 47 40 17 7 12 9 6 16 38 46 77 100 100 100 100 100 99 43 88 100 100
0 0 0 23 28 23 45 33 34 3 2 2 1 1 1 2 2 3 5 14 45 100 97 91 90 100 76 59 100 100 100 100
0 0 2 5 5 5 5 5 5 3 5 5 5 5 5 5 8 6 50 81 99 100 90 98 100 100 100 89 76 76 49 7

GFSFLT1_prec_cloud_048.txt.gz
Cloud_Cover
100 100 95 79 99 68 100 100 100 100 100 100 100 100 100 100 100 100 100 100 100 100 100 100 100 100 100 100 100 100 69 6
100 100 100 100 100 100 100 100 100 100 100 100 100 100 100 100 100 100 100 100 100 100 100 100 100 100 100 100 100 17 5 5
100 100 100 99 100 100 100 100 100 100 100 100 100 100 100 100 100 100 100 100 100 100 100 100 100 57 82 24 6 5 6 5
100 100 100 100 100 100 100 100 100 100 100 100 100 100 100 100 100 100 100 100 100 79 67 100 100 91 73 34 6 38 78 59
100 99 100 100 99 85 100 100 100 100 100 100 100 100 100 100 100 100 100 100 100 100 99 95 98 91 100 100 83 68 85 34
100 100 100 88 33 1 48 100 100 90 93 100 100 100 41 92 100 100 100 81 57 100 100 100 98 100 97 99 100 100 100 73
76 100 100 100 87 92 5 5 15 62 40 79 86 100 100 100 100 100 100 93 100 100 100 100 92 100 100 100 100 100 100 100
98 25 96 100 100 100 100 100 99 86 100 99 81 84 99 91 79 50 99 100 100 100 100 100 100 100 100 100 100 100 100 100
96 95 100 100 100 100 100 100 100 100 100 100 100 74 100 100 96 82 100 87 100 100 100 100 100 100 100 100 100 100 100 100
64 13 15 5 14 18 5 12 5 5 5 81 71 100 100 100 100 62 93 100 100 100 100 100 100 100 100 100 100 100 100 100
27 36 51 57 51 27 12 31 80 16 18 5 94 100 100 89 98 100 100 80 79 100 100 100 100 100 100 100 100 100 100 100
5 5 79 100 94 78 40 5 13 35 88 84 72 98 41 28 93 100 100 100 100 100 100 100 100 100 100 100 100 100 100 100
2 5 59 99 60 39 10 41 5 91 100 100 77 76 64 34 58 82 100 100 100 100 100 100 100 100 100 100 100 100 100 100
0 0 0 1 4 5 5 3 4 55 8 26 100 97 100 100 100 100 100 100 100 100 100 100 100 100 100 100 100 100 100 100
0 0 0 0 0 0 0 2 1 72 80 18 76 100 100 100 100 100 100 100 100 100 100 100 100 100 100 100 100 100 100 100
4 2 0 0 0 0 2 32 30 57 60 54 64 81 100 100 100 100 100 100 100 100 100 100 100 100 100 100 100 100 100 90
0 0 0 0 0 12 0 6 0 12 5 60 100 100 100 100 100 100 100 51 30 27 95 65 58 28 99 100 100 100 100 100
0 0 0 0 14 46 83 41 42 35 61 85 68 57 23 18 23 13 24 5 5 5 27 60 59 79 73 34 72 100 100 100
0 0 0 7 1 31 37 30 8 5 5 4 5 5 9 23 26 23 21 32 37 48 18 29 88 100 89 100 100 68 44 38

GFSFLT1_prec_cloud_054.txt.gz
Cloud_Cover
15 99 100 100 100 100 100 100 100 100 100 100 100 100 100 100 100 100 100 54 95 100 100 100 100 100 96 100 100 100 100 100
41 82 57 100 100 100 98 94 100 100 100 100 100 100 100 100 83 100 97 100 100 100 100 100 100 100 100 100 100 100 100 100
46 80 70 100 100 84 92 100 100 100 100 100 100 100 100 100 100 100 100 100 100 100 100 100 100 100 100 100 100 100 100 100
45 99 89 100 100 100 90 100 100 100 100 100 100 100 100 100 100 100 100 100 100 100 100 100 87 95 97 100 65 94 70 100
82 39 100 99 100 100 100 95 100 100 100 100 100 100 100 100 100 100 100 100 100 100 100 100 100 100 100 100 99 100 94 100
99 100 100 100 100 100 100 100 100 100 100 100 100 100 100 100 100 100 100 100 100 100 100 100 100 100 100 100 100 100 96 95
45 96 100 100 100 95 86 92 96 100 100 100 100 100 100 100 100 100 100 100 95 100 100 100 100 99 99 100 100 100 99 83
5 45 50 100 100 100 38 5 5 5 15 92 94 89 100 99 100 61 100 100 100 100 100 100 100 100 100 100 100 100 100 100
4 5 5 14 100 100 100 98 99 70 5 14 26 92 99 100 92 100 100 98 99 100 100 100 92 100 100 100 100 100 100 100
0 4 13 49 17 38 99 100 100 100 100 100 100 100 94 99 63 99 100 100 100 97 92 92 100 100 100 100 100 100 100 100
2 1 31 4 15 100 87 74 89 94 99 91 100 100 100 100 100 100 100 100 100 100 100 98 94 95 97 100 100 100 100 100
0 0 0 18 70 67 100 100 100 97 100 100 98 52 100 100 100 100 100 100 100 100 100 100 40 41 66 79 100 100 100 100
0 0 0 1 3 19 17 23 72 100 100 100 100 100 100 100 100 100 100 100 100 100 100 88 65 100 100 100 100 100 100 100
0 0 0 0 0 0 4 88 99 100 100 91 100 100 98 100 100 100 100 100 100 100 100 100 100 100 100 100 100 100 100 84
0 0 0 0 0 0 0 0 1 59 100 100 100 89 85 100 100 100 100 100 100 100 100 100 100 100 100 100 100 100 100 88
1 0 0 0 0 1 3 0 1 5 5 20 97 100 100 100 100 100 100 100 100 100 100 100 100 100 100 100 100 100 76 100
5 5 0 0 0 0 0 0 0 0 91 100 100 100 100 100 100 100 100 100 100 100 100 100 100 100 100 100 91 100 100 100
34 5 5 1 0 0 0 4 8 20 100 100 100 100 100 100 100 100 100 100 100 100 100 100 100 100 100 100 100 100 100 100
6 6 39 4 0 0 4 18 45 91 97 100 100 100 100 100 100 81 98 100 100 100 100 100 100 100 100 98 95 65 34 6

GFSFLT1_prec_cloud_057.txt.gz
Cloud_Cover
100 100 100 100 100 100 100 100 100 100 100 100 100 100 100 100 100 100 100 100 100 100 100 100 100 100 100 100 100 100 100 100
19 83 100 100 100 99 31 100 100 100 100 100 100 100 100 100 100 100 100 100 100 100 100 100 100 100 100 100 100 100 100 100
87 100 100 100 100 100 100 90 100 100 100 100 100 100 100 100 100 100 100 100 100 100 100 100 100 100 100 100 100 100 100 100
100 100 97 100 100 100 100 92 100 100 100 100 100 100 100 100 100 100 100 98 100 100 100 97 100 100 100 100 100 100 100 100
42 95 100 33 100 100 100 100 59 100 100 100 100 100 100 100 100 100 100 100 100 100 100 100 100 100 100 100 100 100 100 100
9 49 99 80 81 61 82 100 99 100 100 100 100 100 100 100 100 100 100 100 100 100 100 100 100 100 100 100 100 100 100 100
4 1 48 100 87 31 30 53 97 100 100 95 100 100 100 100 100 100 100 100 100 100 100 100 100 100 100 100 100 100 100 100
0 0 5 51 100 79 30 6 9 7 46 96 100 100 100 100 100 100 100 100 100 100 100 100 100 100 100 100 100 100 100 100
0 0 0 5 43 100 98 27 5 14 45 25 22 75 86 100 100 100 100 100 100 100 100 100 100 79 100 93 100 100 100 100
0 0 0 2 5 30 92 100 100 66 37 16 100 57 52 99 97 70 79 99 100 98 100 100 93 46 76 98 100 92 99 100
1 4 0 13 54 6 13 66 92 100 100 100 100 100 100 100 99 84 90 100 98 100 100 100 100 100 100 82 75 97 65 79
0 0 0 0 5 15 72 68 16 52 100 100 100 81 80 96 91 86 100 100 100 100 100 100 100 100 100 100 49 58 72 100
0 0 0 0 0 0 5 98 100 86 99 85 100 100 77 99 100 100 100 100 100 100 100 100 100 100 100 100 100 100 100 100
5 0 0 0 0 0 0 0 10 90 100 100 95 99 100 32 98 100 100 100 100 100 100 100 100 100 100 100 100 100 100 100
5 3 4 0 0 0 0 0 0 0 2 92 100 100 100 100 100 100 100 100 100 100 100 100 100 100 100 100 100 100 100 100
5 5 5 5 8 1 0 0 0 0 0 0 8 33 73 100 100 100 100 100 100 100 100 100 100 100 100 100 100 100 100 100
12 80 10 5 5 6 9 1 0 0 0 20 54 78 100 100 100 100 100 100 100 100 100 100 100 100 100 100 100 100 100 100
92 82 45 3 5 5 5 27 64 35 11 5 6 83 99 100 100 100 100 100 100 100 100 100 100 100 100 100 100 100 100 100
100 100 5 7 10 36 12 5 0 5 20 59 80 94 79 100 100 100 100 100 100 100 100 100 100 100 100 100 100 100 100 100

GFSFLT1_prec_cloud_063.txt.gz
Cloud_Cover
100 100 100 100 100 100 100 100 100 100 100 100 100 100 100 100 100 100 100 100 100 100 100 100 100 95 100 100 100 100 100 100
100 100 100 100 100 100 100 100 100 100 100 100 100 100 100 100 100 100 100 100 100 100 100 100 100 100 100 100 100 100 100 100
98 100 100 100 100 100 100 100 100 100 100 100 100 100 86 100 100 100 100 100 100 100 100 100 100 100 100 100 100 100 100 100
73 70 100 100 100 100 100 100 100 100 100 100 100 100 100 100 100 100 100 100 100 100 100 100 100 100 100 100 100 100 100 100
28 68 100 100 81 100 100 100 100 100 98 88 100 100 100 100 100 100 100 100 100 100 100 100 100 100 100 100 100 100 100 100
0 0 4 51 100 64 55 100 100 100 100 100 100 100 100 100 100 100 100 100 100 100 100 100 100 100 100 100 100 100 100 100
0 0 0 23 87 75 56 98 100 100 100 100 100 100 100 100 100 100 100 100 100 100 100 100 100 100 100 100 100 91 100 94
2 41 35 46 98 60 83 22 58 100 100 100 100 100 100 100 100 100 100 100 100 100 100 100 100 100 100 100 100 100 100 100
0 0 2 14 97 29 54 46 90 100 87 23 47 84 98 100 100 100 100 100 100 100 100 100 100 100 100 100 100 100 100 100
5 5 0 0 1 18 25 97 100 100 99 6 5 5 30 92 97 99 95 98 100 100 100 100 100 100 99 95 77 89 93 80
40 6 4 0 0 0 14 4 3 85 100 60 5 1 4 5 5 5 5 5 5 15 78 98 85 77 60 48 70 99 100 95
5 5 5 5 0 0 0 0 5 1 0 1 41 41 81 83 74 95 30 50 53 79 24 14 67 100 100 87 56 100 100 100
5 5 5 5 0 0 0 0 0 4 5 5 5 40 48 100 100 100 100 92 96 56 68 87 100 76 100 100 100 100 100 100
9 33 5 5 5 1 0 0 0 4 96 100 69 10 5 42 9 74 80 76 8 73 99 88 90 68 100 100 100 100 100 100
100 6 55 59 5 5 3 5 2 0 0 1 6 61 99 85 40 60 100 77 30 53 96 93 77 100 100 100 100 100 100 100
100 88 5 62 96 5 5 5 4 1 0 0 0 0 0 4 28 68 24 58 28 88 98 100 41 48 68 99 100 100 100 100
100 100 100 11 5 100 10 42 5 15 5 2 0 0 0 0 0 0 0 0 4 2 37 100 100 100 100 100 100 100 100 100
100 100 100 42 65 6 91 78 61 94 11 5 0 5 1 0 0 0 0 1 12 19 90 100 100 100 100 100 100 100 100 100
100 100 100 100 100 29 44 5 37 100 100 82 7 5 5 2 6 5 28 73 82 98 100 100 100 100 100 100 100 100 100 100

GFSFLT1_prec_cloud_066.txt.gz
Cloud_Cover
100 51 100 100 100 100 100 100 100 100 100 100 100 100 100 100 100 98 100 100 100 100 100 100 100 100 100 100 100 100 100 100
65 100 100 100 100 100 100 100 100 100 100 100 100 100 100 100 100 100 100 100 100 100 100 100 100 100 100 100 100 100 100 100
0 84 100 100 100 100 100 100 100 100 100 100 100 97 100 100 100 100 100 100 100 100 100 100 100 100 100 100 100 100 100 100
0 0 81 99 100 100 100 100 100 100 100 100 100 100 100 100 100 100 100 100 100 100 100 100 100 100 100 100 100 100 100 100
0 0 0 70 100 100 100 100 100 100 100 100 100 100 100 78 92 100 100 100 100 100 100 100 100 100 100 100 100 100 100 100
0 0 0 0 26 100 100 100 100 100 100 91 88 100 100 100 100 100 100 100 100 100 100 100 100 100 100 100 100 100 100 100
0 0 0 0 4 35 99 100 100 100 100 100 100 100 100 100 100 100 100 100 100 100 100 100 100 100 100 100 100 100 100 100
0 0 0 0 0 10 95 97 100 100 100 100 100 100 97 100 100 100 100 100 100 100 100 100 100 100 100 100 100 100 100 100
2 0 0 0 0 0 25 26 53 100 100 100 92 69 100 100 100 100 100 100 100 100 100 100 100 100 100 100 100 100 100 100
0 0 0 0 0 0 0 0 0 36 88 97 100 100 100 100 100 100 100 100 100 100 100 100 100 100 100 100 100 100 100 100
0 1 4 3 0 0 0 0 0 2 20 94 100 94 59 31 86 97 100 100 100 100 100 100 100 100 100 100 100 100 66 22
2 0 0 2 1 0 0 0 0 0 0 33 88 100 94 25 16 27 5 12 22 35 25 78 99 60 69 89 20 71 85 100
99 7 4 0 0 0 0 0 0 0 0 0 1 21 20 18 55 14 45 65 99 50 94 98 100 100 69 89 97 60 40 98
100 100 10 1 0 2 3 5 1 0 0 0 0 0 4 40 6 5 5 5 13 52 63 17 6 6 56 67 39 90 90 95
100 100 100 44 3 3 4 5 4 3 0 0 0 0 0 0 2 2 5 25 10 78 98 6 5 5 6 31 48 96 100 100
9 58 100 100 92 0 0 0 8 5 0 0 0 0 0 0 0 0 0 0 5 5 55 18 13 5 86 99 100 98 65 60
99 18 52 12 94 100 5 5 5 44 6 3 5 1 0 0 0 0 0 0 0 0 0 3 9 21 50 89 100 98 70 99
38 5 5 5 6 57 98 46 5 22 36 75 94 93 48 0 0 0 4 1 0 3 0 0 0 0 75 100 100 100 100 100
99 85 100 100 99 97 94 100 100 66 33 99 69 56 87 92 9 33 4 3 2 20 41 63 78 79 100 100 100 100 100 100

GFSFLT1_prec_cloud_069.txt.gz
Cloud_Cover
11 91 100 99 83 100 100 100 100 100 100 100 100 100 100 100 100 100 100 100 100 100 100 100 100 100 93 100 100 99 100 92
0 3 100 96 91 100 100 100 100 100 100 100 100 100 100 100 100 100 100 100 100 100 100 100 100 100 100 100 100 100 100 100
0 0 36 100 99 94 100 100 100 100 100 100 100 100 100 100 100 100 100 100 100 100 100 100 100 100 100 100 100 100 100 100
0 0 0 45 100 100 100 100 99 100 100 100 100 100 100 100 100 100 100 100 100 100 90 100 100 100 100 100 100 100 100 100
0 0 0 0 87 100 100 98 100 99 100 98 100 100 100 92 100 100 100 100 100 100 95 100 100 100 100 100 100 100 100 100
0 0 0 0 19 100 100 100 100 100 100 100 100 100 100 100 100 100 100 100 100 100 100 100 100 100 100 100 100 100 100 100
0 0 0 0 8 84 100 100 100 100 100 100 100 100 99 100 100 100 100 100 100 100 100 100 100 100 100 100 100 100 100 100
0 0 0 0 0 15 80 100 100 100 100 100 98 85 99 99 100 100 100 99 100 93 100 100 100 100 100 100 100 100 100 100
2 1 0 0 0 0 5 44 100 100 100 99 100 97 95 100 99 98 90 100 100 100 100 100 100 100 100 100 100 100 100 100
1 0 0 0 0 0 0 0 8 89 77 100 100 100 95 98 100 97 94 89 100 100 100 100 100 94 66 99 100 100 100 100
1 4 0 0 0 0 0 0 0 3 84 50 82 75 61 100 87 72 100 100 100 100 100 100 100 100 100 100 100 100 100 100
1 100 52 0 0 0 0 0 0 0 0 28 77 66 100 100 98 24 6 18 90 100 100 100 100 100 100 100 100 100 100 100
100 100 3 98 100 1 0 0 0 0 0 0 13 26 55 44 7 36 81 34 5 9 18 27 97 99 63 99 96 99 100 96
92 100 100 100 100 100 5 0 0 0 0 0 0 0 0 0 0 12 14 1 1 48 96 58 12 50 35 55 69 83 85 92
27 5 5 4 4 100 100 36 0 0 1 0 0 0 0 0 0 0 0 0 0 4 5 5 6 40 44 54 63 62 23 5
100 100 40 5 6 30 40 100 92 15 0 0 2 0 0 0 0 0 0 0 0 0 1 0 4 5 5 5 5 5 5 14
45 44 88 100 93 5 5 5 10 92 100 86 0 0 0 4 6 98 7 0 0 0 0 0 0 0 5 5 9 78 74 83
17 98 98 100 100 30 11 21 98 8 100 100 100 9 0 1 2 6 94 100 86 4 19 3 2 2 5 5 2 3 42 37
78 43 40 100 98 100 92 86 30 48 65 69 100 100 100 55 45 100 80 14 65 100 100 100 70 50 22 100 100 26 52 35

GFSFLT1_prec_cloud_072.txt.gz
Cloud_Cover
0 0 99 90 100 100 100 92 100 100 100 100 100 100 100 100 100 100 100 100 100 100 100 100 100 100 100 100 100 100 100 100
0 0 38 96 100 100 100 69 100 100 100 100 100 100 100 100 100 100 100 100 100 100 100 100 100 100 100 100 100 100 100 100
0 0 0 74 100 100 100 100 96 100 100 100 100 100 100 100 100 100 100 100 100 78 98 98 100 100 100 100 100 100 100 100
0 0 0 0 92 100 100 100 100 100 100 100 100 100 100 100 100 100 100 100 100 100 100 100 100 100 100 100 100 100 100 100
0 0 0 0 20 100 100 100 100 100 100 100 100 100 100 100 100 100 100 100 100 100 100 100 100 100 100 100 100 100 100 100
0 0 0 0 0 100 100 100 98 100 100 100 100 98 100 100 100 100 100 100 100 100 100 100 100 100 100 100 100 100 100 100
0 0 0 0 0 98 100 100 100 100 100 100 100 100 86 100 96 99 100 100 100 100 100 97 100 100 100 100 100 100 100 100
0 0 0 0 0 23 73 100 100 100 100 100 100 100 100 100 100 100 100 100 100 100 97 100 90 100 100 100 100 100 100 100
0 0 0 0 0 0 44 27 99 100 100 100 100 100 100 99 100 100 100 100 100 100 100 100 100 100 100 100 100 100 100 100
2 0 0 0 0 0 0 3 71 99 100 100 100 100 100 100 78 94 100 100 75 100 100 100 100 100 100 100 100 100 100 100
5 24 1 0 4 0 0 0 0 2 46 100 100 100 100 98 50 79 100 100 100 100 100 100 100 100 100 100 100 96 100 100
100 100 97 0 100 19 1 0 0 0 0 10 86 100 100 100 19 26 38 24 22 80 100 100 100 100 100 100 100 100 100 100
53 40 100 100 100 79 100 99 5 0 0 0 0 73 100 100 68 34 46 8 37 7 1 6 68 100 100 100 100 100 100 100
4 0 10 92 100 100 100 84 100 15 0 0 0 0 0 17 0 0 19 13 0 0 1 4 5 3 4 47 88 86 92 73
49 5 5 4 14 94 83 2 87 100 89 3 2 0 0 0 0 0 1 2 28 1 0 0 1 5 5 5 5 13 45 14
100 98 83 75 36 5 3 0 1 63 100 100 88 21 7 1 0 0 0 0 9 76 4 1 0 0 0 1 4 5 5 5
5 56 100 59 98 37 31 20 5 0 0 4 5 22 100 54 12 3 0 0 26 100 100 96 18 4 0 5 5 4 5 5
82 74 12 7 13 14 15 5 5 5 5 5 3 4 4 55 93 63 13 21 6 19 21 5 21 100 100 100 100 88 10 13
100 100 100 45 84 96 93 27 69 94 94 69 39 46 58 59 6 49 100 100 88 100 99 79 46 73 61 100 100 100 100 97

GFSFLT1_prec_cloud_075.txt.gz
Cloud_Cover
0 0 0 1 87 100 66 100 98 100 100 100 100 100 100 100 100 100 100 100 100 100 100 100 100 94 99 84 100 100 100 100
0 0 0 19 100 100 100 100 100 98 100 100 100 100 100 100 100 100 100 100 100 100 100 100 60 100 100 100 100 100 100 100
0 0 0 3 63 100 100 100 100 99 84 99 100 100 100 100 100 100 100 100 100 100 100 100 100 100 99 97 100 100 100 100
0 0 0 10 62 96 100 100 100 99 100 100 100 100 100 100 100 100 100 100 100 100 100 100 100 100 100 100 100 100 100 100
0 0 0 0 1 80 100 100 100 76 99 100 100 100 100 100 100 100 100 100 100 100 100 100 100 100 100 100 100 100 100 100
0 0 0 0 0 88 100 100 100 100 100 100 100 100 100 100 100 100 100 100 100 100 100 100 100 100 100 100 100 100 100 100
5 0 0 0 0 80 67 100 100 100 100 100 100 100 100 100 100 100 100 100 100 100 100 100 100 100 100 100 100 94 96 100
5 2 0 0 0 48 100 100 100 97 100 100 100 100 100 100 100 100 100 100 100 100 100 100 100 100 100 100 100 100 99 100
5 5 0 0 0 0 100 100 99 100 100 100 100 100 100 100 100 100 100 100 100 100 100 98 100 100 100 100 100 100 97 100
5 5 3 0 0 0 14 96 100 100 100 100 100 100 100 100 100 100 100 100 100 100 100 100 100 100 100 100 100 100 100 100
10 5 5 1 11 1 0 0 12 59 98 100 100 100 100 100 100 100 100 100 100 98 100 100 100 100 100 100 100 100 100 100
5 70 70 100 100 5 29 12 55 9 0 66 100 100 100 100 100 82 94 100 100 92 100 98 100 100 100 100 100 100 100 100
6 97 100 98 66 100 100 100 100 100 36 0 2 88 100 100 100 100 5 1 0 1 2 1 5 37 100 100 100 100 92 84
100 98 100 80 13 39 72 100 83 53 5 94 7 0 26 100 100 100 100 30 0 0 0 0 0 1 4 5 5 38 96 100
90 72 32 63 74 8 5 6 78 100 5 29 42 3 0 7 97 100 100 61 1 0 4 3 5 0 0 0 4 4 5 5
100 28 22 24 17 5 5 4 2 1 1 1 1 68 60 75 5 48 81 74 40 0 0 2 29 35 5 0 0 0 0 0
92 99 30 57 5 42 100 44 2 4 5 0 0 0 0 0 2 0 0 1 18 47 21 6 1 0 0 1 4 5 14 100
100 100 93 100 80 10 5 5 49 91 71 6 5 11 5 3 4 5 3 0 1 4 23 39 71 52 9 6 5 9 2 3
33 98 78 94 98 90 75 80 67 41 90 89 66 51 45 60 11 5 5 5 5 28 14 96 96 59 60 71 95 100 100 94

GFSFLT1_prec_cloud_078.txt.gz
Cloud_Cover
0 0 16 45 23 2 25 79 100 100 100 100 100 100 100 100 100 100 100 100 100 100 100 100 100 100 100 98 99 100 90 100
0 0 66 81 45 21 41 99 100 97 100 100 100 100 100 100 100 100 100 100 100 100 100 100 100 100 100 100 97 100 100 100
0 23 100 99 94 42 53 68 100 100 100 100 100 100 100 100 100 100 100 100 100 100 100 100 100 100 100 100 100 100 100 100
0 33 99 100 100 92 100 66 100 100 100 100 100 100 100 100 100 100 100 100 100 100 100 100 100 100 100 100 100 100 100 100
0 4 100 100 92 52 58 64 100 100 100 100 100 100 100 100 100 100 100 100 100 100 100 100 100 100 100 100 100 97 79 78
3 5 27 72 62 64 21 28 76 100 100 99 100 100 100 100 100 100 100 100 100 100 100 100 100 100 100 100 100 100 83 100
5 5 3 36 50 36 55 100 100 100 100 42 100 100 100 100 100 100 100 100 100 100 100 100 100 100 100 100 100 100 96 95
2 10 5 10 66 55 47 100 100 100 100 65 40 46 86 100 100 100 100 100 100 100 100 100 100 100 100 100 100 100 92 96
5 5 5 4 39 56 27 100 100 100 100 100 98 59 41 34 94 65 100 100 100 100 100 100 100 100 100 99 100 100 100 100
5 0 5 1 12 36 10 29 100 100 100 100 100 100 100 100 100 84 49 52 54 100 100 100 100 100 100 100 99 96 91 97
5 0 5 0 5 4 1 3 99 100 100 100 100 100 100 100 100 100 100 99 78 79 100 100 100 100 100 100 100 99 100 100
28 4 4 5 5 18 98 5 53 100 100 99 100 100 100 100 66 67 100 100 100 100 100 100 100 100 100 100 100 100 100 100
84 68 5 5 50 100 72 81 100 100 100 99 96 100 100 100 100 100 53 14 8 22 98 100 100 100 100 100 100 100 91 99
97 24 7 25 90 100 100 19 72 100 98 62 6 5 67 98 100 100 100 98 58 14 20 0 0 5 47 31 64 94 83 35
100 100 100 100 98 98 87 9 8 4 41 37 16 22 5 4 61 98 100 100 100 100 42 32 1 9 1 14 25 15 16 10
100 100 100 100 80 61 17 5 41 88 15 19 0 0 1 0 3 6 89 98 100 100 100 89 28 0 0 0 1 4 1 1
100 100 100 94 100 100 100 100 57 62 96 26 37 27 93 26 0 0 0 0 19 99 100 100 36 19 17 0 0 4 1 0
100 100 100 100 100 100 67 58 96 100 100 100 91 79 49 54 70 72 37 29 20 15 8 7 19 6 5 5 17 58 13 4
99 100 100 100 100 100 100 74 50 28 18 42 81 99 100 100 99 76 98 94 92 98 97 42 16 9 6 56 83 29 80 86

GFSFLT1_prec_cloud_081.txt.gz
Cloud_Cover
73 10 7 29 27 27 99 31 13 93 32 100 100 100 100 100 100 100 100 100 100 100 100 100 100 94 100 100 95 100 100 75
3 2 46 62 41 74 100 100 100 100 96 100 100 100 100 100 100 100 100 100 100 100 100 100 100 100 100 100 100 99 85 95
6 52 99 94 74 70 100 100 100 100 100 100 100 100 100 100 100 100 100 100 100 100 100 100 100 100 100 100 98 85 77 100
17 79 100 100 100 100 100 100 69 100 48 100 100 100 100 100 100 100 100 100 100 100 100 100 100 100 100 100 100 100 97 100
2 51 100 100 100 100 100 48 54 99 87 100 100 100 100 100 100 100 100 100 100 100 100 100 100 100 100 100 100 100 100 100
5 28 61 100 100 100 100 20 76 100 100 100 100 100 100 100 100 100 100 100 100 100 100 100 100 100 100 100 100 100 100 100
4 43 99 100 100 100 100 80 100 100 100 100 100 100 100 100 100 100 100 100 100 100 100 100 100 100 100 100 100 100 95 97
5 85 100 100 100 100 99 70 100 97 98 98 100 100 100 100 100 100 100 100 100 100 100 100 100 100 100 100 100 100 100 100
4 24 65 95 100 100 72 52 52 63 75 100 100 100 100 100 100 100 100 100 100 100 100 100 100 100 100 100 100 100 100 100
5 5 60 69 100 100 20 16 31 56 70 93 100 100 100 100 100 100 100 100 100 100 100 100 100 100 100 100 100 100 100 100
5 32 71 14 72 94 24 8 24 24 65 59 89 87 60 99 63 79 100 100 100 100 100 100 100 100 100 100 100 100 100 100
61 62 61 7 37 75 55 34 52 3 22 100 82 27 40 96 100 48 100 100 100 100 100 100 100 100 100 100 100 100 100 100
94 98 92 5 16 47 37 22 100 96 100 100 100 100 63 50 77 3 0 7 78 100 100 100 100 100 100 100 100 100 100 100
92 9 6 92 94 81 69 100 100 100 100 100 100 100 100 52 18 5 5 0 0 0 4 8 16 50 68 47 35 87 98 98
54 49 94 99 98 93 98 100 100 98 46 24 38 17 20 70 92 100 100 100 89 15 5 0 0 0 0 0 2 4 5 5
99 100 100 100 100 100 100 100 100 100 17 58 53 7 5 2 5 10 30 68 93 100 100 98 76 32 4 14 17 0 1 22
100 100 100 100 100 100 100 100 86 76 69 50 29 72 67 58 5 44 21 1 1 5 68 99 100 100 100 81 68 81 75 4
100 100 100 100 100 100 100 100 100 100 100 100 100 100 91 98 38 37 89 72 59 72 42 20 16 27 53 89 98 71 35 39
100 100 100 100 100 100 100 100 100 100 100 100 100 100 100 100 100 100 100 100 100 100 100 100 100 100 100 100 94 100 89 48

GFSFLT1_prec_cloud_084.txt.gz
Cloud_Cover
0 69 5 10 18 14 18 24 68 100 100 100 100 100 100 100 100 100 100 100 100 100 100 100 100 100 100 100 100 100 100 100
8 24 43 68 52 83 100 52 45 100 100 100 100 100 100 100 100 100 100 100 100 100 100 100 100 100 100 100 100 100 100 79
100 87 96 84 94 100 100 98 25 56 61 56 100 100 100 100 100 100 100 100 100 100 100 100 100 100 100 100 100 86 68 96
100 92 53 80 100 100 100 92 80 100 100 94 100 100 100 100 100 100 100 100 100 100 100 100 100 100 100 100 100 100 100 100
93 52 78 74 100 100 100 100 100 100 100 100 100 100 100 100 100 100 100 100 100 100 100 100 100 100 100 100 100 100 100 100
100 100 88 84 98 100 100 100 62 71 99 78 99 100 100 94 100 100 100 100 100 100 100 100 100 100 100 100 100 100 100 100
21 58 7 75 100 100 100 100 81 100 100 100 100 100 100 100 100 100 100 100 100 100 100 100 100 100 100 100 100 100 100 100
32 60 49 81 100 100 100 100 100 100 100 100 100 100 100 100 100 100 100 100 100 100 100 100 100 100 100 100 100 100 100 100
100 59 27 38 100 100 100 100 100 100 100 100 100 100 100 100 100 100 100 100 100 100 100 100 100 100 100 100 100 100 100 100
61 99 30 86 100 100 100 100 100 100 88 100 100 100 100 100 100 100 100 100 100 100 100 100 100 100 100 100 100 100 100 100
100 100 78 100 100 100 100 100 93 100 80 70 100 100 100 100 100 100 100 100 100 100 100 100 100 100 100 100 100 100 100 100
77 100 97 100 100 100 100 72 58 92 100 85 83 100 100 93 100 99 100 100 100 100 100 100 100 100 100 100 100 100 100 100
80 100 100 100 100 100 100 72 33 27 94 48 100 100 96 100 100 100 100 100 100 100 100 100 100 100 100 100 100 100 100 100
100 100 100 100 100 100 100 49 9 24 33 78 100 100 100 100 100 100 76 4 3 52 97 98 99 100 100 100 100 100 100 100
100 100 100 100 100 100 100 59 82 90 65 19 33 16 53 77 99 86 98 98 48 31 22 9 6 48 98 100 100 100 100 96
100 100 100 100 100 100 100 99 100 96 100 68 60 23 22 5 5 5 6 17 53 62 30 40 39 45 37 49 51 68 71 55
100 100 100 100 100 100 100 100 100 100 100 100 98 77 40 21 9 0 0 4 5 13 1 44 75 100 100 100 100 100 73 76
100 100 100 100 100 100 100 100 100 100 100 100 100 100 100 100 100 100 100 100 100 82 95 98 100 100 100 100 97 99 100 100
100 100 100 100 100 100 100 100 100 100 100 100 100 100 100 100 100 100 100 100 100 100 100 100 100 100 100 100 100 100 100 100

GFSFLT1_prec_cloud_087.txt.gz
Cloud_Cover
5 0 0 0 0 0 2 58 100 97 80 70 80 100 100 100 100 100 100 100 100 100 100 100 100 100 100 100 100 94 100 100
0 0 0 0 0 4 5 62 100 81 100 100 100 100 100 100 100 100 100 100 100 100 100 100 100 100 100 100 100 96 100 100
0 0 0 0 0 5 84 72 74 100 96 96 100 100 100 100 100 100 100 100 100 100 100 100 100 100 100 100 100 100 100 100
0 0 0 4 4 50 95 64 5 80 98 81 100 100 100 100 100 100 100 100 100 100 100 100 100 100 100 100 100 100 100 100
0 0 2 1 48 100 100 16 3 36 41 60 100 97 100 100 100 100 100 100 100 100 100 100 100 100 100 100 100 100 100 100
0 0 3 17 86 100 100 57 18 35 59 100 59 100 100 100 100 100 100 100 100 100 100 100 100 100 100 100 100 100 100 100
0 0 75 48 100 100 100 94 69 62 93 100 100 92 100 100 100 100 100 100 100 100 100 100 100 100 100 100 100 100 100 100
0 32 6 30 100 100 100 100 64 92 100 100 100 100 100 100 100 100 100 100 100 100 100 100 100 100 100 100 100 100 100 100
25 9 5 46 100 100 100 99 64 99 100 100 100 100 100 100 100 100 100 100 100 100 100 100 100 100 100 100 100 100 100 100
93 12 5 35 82 100 100 100 58 100 100 100 100 100 100 100 100 100 100 100 100 100 100 100 100 100 100 100 100 100 100 100
100 100 100 85 78 100 100 100 100 100 100 100 100 100 100 100 100 100 100 100 100 100 100 100 100 100 100 100 100 100 100 100
100 100 73 87 77 100 100 100 100 100 100 96 100 100 100 100 100 100 100 100 100 100 100 100 100 100 100 100 100 100 100 100
100 100 100 100 100 100 100 100 100 100 100 64 100 100 100 100 100 100 100 100 100 100 100 100 100 100 100 100 100 100 100 100
100 100 100 100 100 100 100 100 91 98 100 91 100 100 100 100 100 100 100 100 100 100 100 100 100 100 100 100 100 100 100 100
100 100 100 100 100 100 100 83 57 55 67 78 100 100 100 100 100 100 100 100 100 100 100 100 100 100 100 100 100 100 100 100
100 100 100 100 100 100 100 99 91 44 44 61 65 99 55 62 73 69 94 100 100 100 74 43 44 62 59 79 98 100 100 100
100 100 100 100 100 100 100 100 100 77 100 100 100 87 75 68 70 54 52 48 60 76 93 71 100 100 100 100 100 100 100 100
100 100 100 100 100 100 100 100 100 100 100 100 100 100 100 100 100 100 100 100 100 100 100 100 100 100 100 98 93 80 96 100
100 100 100 100 100 100 100 100 100 100 100 100 100 100 100 100 100 100 100 100 100 100 100 100 100 100 100 100 94 100 100 100

GFSFLT1_prec_cloud_090.txt.gz
Cloud_Cover
5 5 15 5 0 0 0 0 91 100 100 100 100 99 100 100 100 100 100 100 100 100 100 100 100 100 100 100 100 100 100 100
7 14 4 1 0 0 0 0 96 100 100 98 100 67 100 100 100 100 100 100 100 100 100 100 100 100 100 100 100 100 100 100
5 12 24 3 0 0 0 0 100 94 85 39 48 100 100 95 100 100 100 100 100 100 100 100 100 100 100 100 100 100 100 100
31 5 1 0 0 0 0 0 82 99 26 26 99 100 99 100 100 100 100 100 100 100 100 100 100 100 100 100 100 100 100 100
23 2 0 0 0 0 0 2 100 54 25 23 44 15 76 100 100 100 100 100 100 100 100 100 100 100 100 100 100 100 100 100
5 4 0 0 0 0 2 40 19 36 24 8 31 13 65 99 100 100 100 100 100 100 100 100 100 100 100 100 100 100 100 100
5 0 0 0 0 18 9 54 34 33 30 2 0 18 62 93 100 100 100 100 100 100 100 100 100 100 100 100 100 100 100 100
0 0 0 0 3 100 93 98 68 42 29 5 10 46 98 100 100 100 100 100 100 100 100 100 100 100 100 100 100 100 100 100
0 0 0 2 69 100 100 98 62 44 21 18 84 99 100 100 100 100 100 100 100 100 100 100 100 100 100 100 100 100 100 100
0 0 5 100 100 100 100 85 66 41 34 54 100 91 100 100 100 100 100 100 100 100 100 100 100 100 100 100 100 100 100 100
0 0 80 100 88 100 100 66 75 71 39 99 100 100 100 100 100 100 100 100 100 100 100 100 100 100 100 100 100 100 100 100
62 10 100 99 99 100 100 96 99 100 87 99 100 62 100 100 100 100 100 100 100 100 100 100 100 100 100 100 100 100 100 100
100 100 100 100 100 100 100 100 100 99 91 100 78 50 100 100 100 100 100 100 100 100 100 100 100 100 100 100 100 100 100 100
100 100 100 100 100 100 100 100 100 94 100 100 98 86 98 100 100 100 100 100 100 100 100 100 100 100 100 100 100 100 100 100
100 100 100 100 100 100 100 100 100 100 100 100 100 94 70 87 100 100 100 100 100 100 100 100 100 100 100 100 100 100 100 100
100 100 100 100 100 100 100 100 100 97 98 100 100 99 100 100 100 100 100 100 100 100 100 100 100 100 100 100 100 100 100 100
100 100 100 100 100 100 100 100 100 100 100 100 100 100 100 100 100 100 100 100 100 100 100 100 100 100 100 100 100 100 100 100
100 100 100 100 100 100 100 100 100 100 100 100 100 100 100 100 100 100 100 96 93 100 100 100 100 100 100 100 100 100 100 100
100 100 100 100 100 100 100 100 100 100 100 100 100 100 100 100 100 100 100 100 100 100 100 100 100 100 99 99 95 100 100 100

GFSFLT1_prec_cloud_093.txt.gz
Cloud_Cover
78 92 29 5 5 5 1 0 21 84 100 100 100 100 98 99 98 79 98 100 100 91 100 100 100 100 100 100 100 100 100 100
100 100 85 23 5 5 0 0 0 60 100 100 100 100 100 100 100 100 100 100 100 98 100 100 100 100 100 100 100 100 100 100
100 100 99 5 2 2 0 0 0 35 100 100 65 98 100 100 100 100 97 100 100 100 100 100 100 100 100 100 100 100 100 100
100 80 70 52 5 5 0 0 0 65 88 84 96 100 100 100 100 100 85 98 92 100 100 100 100 100 100 100 100 100 100 100
93 97 100 5 5 5 0 0 0 49 13 12 100 79 100 100 100 74 78 96 100 100 100 100 100 100 100 100 100 100 100 100
100 99 100 99 65 3 0 0 0 23 0 43 63 82 40 28 70 89 100 100 100 100 100 100 100 100 100 100 100 100 100 100
58 94 68 22 1 0 0 0 0 16 5 82 62 51 15 18 99 86 100 100 100 100 100 100 100 100 100 100 100 100 100 100
99 38 5 5 1 0 0 0 0 23 15 66 66 21 16 45 100 83 100 100 100 100 100 100 100 100 100 100 100 100 100 100
32 5 4 5 0 1 0 0 4 23 91 86 39 37 71 100 86 83 100 100 100 100 100 100 100 100 100 100 100 100 100 100
46 5 5 5 0 20 3 4 26 81 100 93 52 75 100 99 83 100 97 100 100 100 100 100 100 100 100 100 100 100 100 100
90 52 5 9 3 33 93 100 100 100 100 96 55 100 96 75 99 100 100 100 100 100 100 100 100 100 100 100 100 100 100 100
100 80 62 73 34 95 100 100 100 100 100 99 99 100 85 64 86 100 100 100 100 100 100 100 100 100 100 100 100 100 100 100
100 100 100 100 87 100 100 97 100 100 100 100 100 100 78 95 100 100 100 100 100 100 100 100 100 100 100 100 100 100 100 100
100 100 100 100 100 100 100 100 100 100 100 100 100 100 82 100 100 100 100 100 100 100 100 100 100 100 100 100 100 100 100 100
100 100 100 100 100 100 100 100 100 100 100 100 100 100 75 80 100 100 100 100 100 100 100 100 100 100 100 100 100 100 100 100
100 100 100 100 100 100 100 100 100 100 100 100 100 100 34 100 100 100 100 100 100 100 100 100 100 100 100 100 100 100 100 100
100 100 100 100 100 100 100 100 100 87 100 100 100 100 88 100 100 100 100 100 100 100 100 100 100 100 100 100 100 100 100 100
100 100 100 100 100 100 100 100 100 100 100 100 100 100 100 100 100 100 100 100 100 100 100 100 100 100 100 100 100 100 100 100
100 100 100 100 100 100 100 100 100 100 100 100 100 100 100 100 100 100 100 100 100 100 100 100 100 100 100 100 100 100 100 100

GFSFLT1_prec_cloud_096.txt.gz
Cloud_Cover
100 100 100 100 98 98 99 94 99 43 5 26 100 100 100 84 36 34 99 50 43 100 51 41 34 95 100 100 100 100 100 100
67 99 99 100 100 100 100 100 100 100 9 38 100 100 100 100 97 49 61 100 100 100 100 55 87 100 100 100 100 100 100 100
100 100 100 100 100 100 100 100 100 77 4 97 86 100 100 100 100 82 100 100 100 100 83 66 100 100 100 100 100 100 100 100
100 100 100 100 100 100 100 100 82 6 18 92 71 100 100 100 100 88 100 100 100 100 100 100 100 100 100 100 100 100 100 100
100 100 100 100 100 100 100 100 56 5 0 97 25 43 98 72 97 100 100 96 50 59 96 100 100 100 100 100 100 100 100 100
100 100 100 100 100 100 100 95 1 5 0 0 0 34 34 88 99 100 100 100 100 95 94 100 100 100 100 100 100 100 100 100
100 100 100 100 100 100 73 8 0 4 0 0 35 14 9 7 3 8 20 68 37 100 100 100 100 100 100 100 100 100 100 100
100 100 100 100 100 84 8 5 0 3 0 0 67 94 90 92 39 4 41 87 98 100 100 100 100 100 100 100 100 100 100 100
100 100 100 100 95 100 100 5 0 0 0 13 96 100 100 100 49 3 71 100 100 100 100 100 100 100 100 100 100 100 100 100
100 100 100 100 84 96 14 2 0 42 100 100 100 100 100 91 17 84 80 100 100 100 100 100 100 100 100 100 100 100 100 100
89 100 99 92 41 5 20 2 47 100 100 100 100 100 100 100 100 58 100 100 100 100 100 100 100 100 100 100 100 100 100 100
88 81 99 94 57 56 21 8 100 100 100 100 100 100 100 100 60 97 85 100 80 100 100 100 100 100 100 100 100 100 100 100
96 100 100 100 100 80 0 96 100 100 100 100 100 100 100 100 100 100 98 100 100 100 100 100 100 100 100 100 100 100 100 100
100 100 100 100 100 100 65 100 100 100 100 100 100 100 100 100 84 100 100 100 100 100 100 100 100 100 100 100 100 100 100 100
97 100 100 100 100 100 100 100 100 100 100 100 100 100 100 100 100 73 100 100 100 100 100 100 100 100 100 100 100 100 100 100
100 100 100 100 100 100 100 100 100 100 100 100 100 100 100 58 82 81 100 100 100 100 100 100 100 100 100 100 100 100 100 100
100 100 100 100 100 100 100 100 100 100 100 100 100 100 100 100 100 100 100 100 100 100 100 100 100 100 100 100 100 100 100 100
100 100 100 100 100 100 100 100 100 100 100 100 100 100 100 100 100 100 100 100 100 100 100 100 100 100 100 100 100 100 100 100
100 100 100 100 100 100 100 100 100 100 100 100 100 100 100 100 100 100 100 100 100 100 100 100 100 100 100 100 100 100 100 100

GFSFLT1_prec_cloud_099.txt.gz
Cloud_Cover
84 100 100 100 100 100 100 100 100 100 100 100 96 99 5 5 56 42 2 0 0 0 7 38 48 95 100 100 100 100 100 100
100 100 100 100 100 100 100 100 100 100 100 100 99 43 46 100 58 0 88 100 100 40 47 100 100 100 100 100 100 100 100 100
29 97 99 100 100 100 100 100 100 100 100 38 80 100 100 98 100 100 75 100 100 100 100 100 100 100 100 100 100 100 100 100
17 100 100 77 100 98 100 100 100 100 100 98 100 100 100 89 100 100 100 100 100 100 100 100 100 100 99 100 100 100 100 100
5 76 100 100 100 100 88 100 100 100 100 100 100 100 96 36 98 100 100 100 100 100 100 100 100 100 100 100 100 100 100 100
100 100 100 100 100 100 100 100 100 100 100 100 100 98 5 5 99 100 100 100 100 100 100 100 100 100 100 99 100 100 100 100
100 100 100 100 100 100 100 100 100 100 99 100 48 5 5 56 100 99 100 100 100 100 100 57 85 80 100 100 100 100 96 100
100 100 100 100 100 100 100 100 100 100 88 86 5 5 5 62 36 24 74 79 88 100 100 100 100 100 100 100 100 100 80 100
100 100 100 100 100 100 100 100 100 100 100 18 92 28 5 28 100 17 32 76 100 100 73 100 89 100 100 100 100 100 100 100
100 100 100 100 100 100 100 44 92 91 49 98 100 53 8 100 100 97 81 44 55 51 98 100 100 100 100 100 100 100 100 100
100 100 100 100 100 100 99 87 100 100 7 95 63 9 100 100 100 100 60 3 11 91 100 100 100 100 100 100 100 100 100 100
100 100 100 100 100 100 97 70 94 19 64 63 100 100 100 100 100 99 24 52 100 100 83 100 100 100 100 100 100 100 100 100
100 100 100 100 100 100 100 100 99 83 57 100 100 100 100 100 100 100 74 97 100 58 100 100 100 100 100 100 100 100 100 100
100 100 100 100 100 100 97 100 100 100 100 100 100 100 100 100 100 83 100 100 100 100 100 100 100 100 100 100 100 100 100 100
100 100 100 100 100 100 100 100 100 100 100 100 100 100 100 100 100 98 100 100 100 100 100 100 100 100 100 100 100 100 100 100
100 100 100 100 100 100 100 100 100 100 100 100 100 100 100 100 86 44 100 100 100 100 100 100 100 100 100 100 100 100 100 100
100 100 100 100 100 100 100 100 100 100 100 100 100 100 100 100 100 100 100 100 100 100 100 100 100 100 100 100 100 100 100 100
100 100 100 100 100 100 100 100 100 100 100 100 100 100 100 100 100 100 100 100 100 100 100 100 100 100 100 100 100 100 100 100
100 100 100 100 100 100 100 100 100 100 100 100 100 100 100 100 100 100 100 100 100 100 100 100 100 100 100 100 100 100 100 100

GFSFLT1_prec_cloud_102.txt.gz
Cloud_Cover
0 4 5 5 26 100 100 100 100 100 98 100 100 100 100 100 100 51 5 11 11 23 46 93 99 100 100 100 100 100 100 100
0 0 5 79 88 100 100 100 100 100 100 100 100 95 100 100 100 42 65 19 28 36 70 100 100 100 100 100 100 100 100 100
0 0 2 16 41 65 100 100 100 100 100 100 47 11 100 100 100 100 100 100 86 98 88 100 100 100 100 100 100 100 100 100
0 10 72 65 2 84 80 78 100 100 100 100 100 100 100 99 100 100 100 100 100 100 100 100 100 100 100 100 100 100 100 100
87 100 48 0 5 32 100 100 100 100 100 100 100 100 100 98 100 100 24 100 100 100 100 100 100 100 100 100 100 98 100 100
0 26 4 0 36 100 100 100 100 100 100 100 88 55 99 100 100 99 91 65 100 100 100 100 100 100 100 100 100 100 100 100
42 85 1 26 100 100 100 100 100 100 100 100 100 100 100 100 100 100 100 98 100 100 100 100 100 100 100 100 100 100 100 100
100 100 100 100 100 100 100 100 100 100 100 100 100 100 100 100 99 100 89 92 100 100 100 100 100 100 100 100 100 100 100 100
100 100 100 100 100 100 100 100 100 100 98 100 98 96 100 100 100 82 30 93 49 34 92 99 100 100 100 100 100 100 100 100
100 100 100 100 100 100 100 100 100 100 100 71 47 100 100 100 100 100 95 100 42 34 82 88 100 100 100 100 100 100 100 100
100 100 100 100 100 100 100 100 100 100 100 100 100 98 100 100 100 98 100 100 100 99 100 100 100 100 88 100 100 100 100 100
100 100 100 100 100 100 100 100 100 100 100 100 100 100 100 100 100 100 100 100 100 100 100 100 100 100 100 100 100 100 100 100
100 100 100 100 100 100 100 100 100 100 100 43 91 100 100 100 100 100 100 100 100 100 98 100 100 100 100 100 100 100 100 100
100 100 100 100 100 100 100 100 100 100 100 94 92 100 100 100 100 100 100 100 100 97 100 100 100 98 85 100 100 100 100 100
100 100 100 100 100 100 100 100 100 100 100 100 100 100 100 100 100 100 100 96 97 100 96 100 100 100 100 100 100 100 100 100
100 100 100 100 100 100 100 100 100 100 100 100 100 100 100 100 100 100 100 99 100 90 98 100 100 100 100 100 100 100 100 100
100 100 100 100 100 100 100 100 100 100 100 100 100 100 100 100 100 100 100 100 100 100 100 100 100 100 100 100 100 100 100 100
100 100 100 100 100 100 100 100 100 100 100 100 100 100 100 100 100 100 100 100 100 100 100 100 100 100 100 100 100 100 100 100
100 100 100 100 100 100 100 100 100 100 100 100 100 100 100 100 100 100 100 100 100 100 100 100 100 100 100 100 100 100 100 100

GFSFLT1_prec_cloud_105.txt.gz
Cloud_Cover
0 0 0 0 0 0 37 87 94 99 100 78 58 78 99 100 100 100 100 100 99 96 67 100 100 100 100 88 100 100 100 100
0 2 0 0 0 4 0 60 98 44 100 100 100 100 100 100 100 100 100 100 100 100 98 100 100 100 100 100 100 100 100 100
0 0 4 0 0 4 0 19 100 73 100 100 100 100 100 77 72 98 100 100 100 100 100 100 100 100 100 100 100 100 100 100
0 0 0 1 0 0 0 5 83 97 100 100 100 86 62 100 100 100 99 78 98 100 100 100 100 100 100 100 100 93 100 100
22 0 0 0 0 0 0 5 90 99 100 100 100 100 88 100 92 71 100 100 100 100 100 100 100 100 100 100 100 84 87 100
100 100 69 6 29 41 1 5 99 84 100 100 100 100 100 100 100 100 100 100 100 100 100 100 100 100 100 100 100 100 100 100
100 100 100 100 93 21 53 5 87 96 100 100 100 100 74 100 100 100 100 100 100 100 100 100 100 100 100 100 100 100 100 100
100 100 100 100 100 100 100 97 100 100 100 100 100 100 96 87 100 99 100 100 100 100 100 100 100 100 100 100 100 100 100 100
100 100 100 100 100 100 100 100 100 100 100 100 100 100 100 50 95 100 100 99 100 100 100 100 100 100 100 100 100 100 100 100
100 100 100 100 100 100 100 100 100 100 100 100 100 100 76 100 100 100 100 100 100 100 100 100 100 100 100 100 100 100 100 100
100 100 100 100 100 100 100 100 100 100 100 100 100 100 100 100 100 100 100 100 100 100 98 99 90 100 100 100 100 100 100 100
100 100 100 100 100 100 100 100 100 100 100 100 100 100 100 100 100 100 100 100 100 100 100 99 95 100 100 100 100 100 100 100
100 100 100 100 100 100 100 100 100 100 100 100 100 100 100 100 100 100 100 100 100 100 100 100 100 100 100 100 100 100 100 100
100 100 100 100 100 100 100 100 100 100 100 100 100 100 100 100 100 100 100 100 100 100 59 100 100 100 100 100 100 100 100 100
100 100 100 100 100 100 100 100 100 100 100 100 100 100 100 100 100 100 100 100 100 38 82 100 100 100 100 100 100 100 100 100
100 100 100 100 100 100 100 100 100 100 100 100 100 100 100 100 100 100 100 100 93 94 100 100 100 100 100 100 100 100 100 100
100 100 100 100 100 100 100 100 100 100 100 100 100 100 100 100 100 100 100 100 100 100 100 100 100 100 100 100 100 100 100 100
100 100 100 100 100 100 100 100 100 100 100 100 100 100 100 100 100 100 100 100 100 100 100 100 100 100 100 100 100 100 100 100
100 100 100 100 100 100 100 100 100 100 100 100 100 100 100 100 100 100 100 100 100 100 100 100 100 100 100 100 100 100 100 100

GFSFLT1_prec_cloud_108.txt.gz
Cloud_Cover
100 100 14 3 0 0 0 0 0 8 100 100 100 100 100 100 100 100 100 100 100 100 100 100 100 100 100 100 59 58 86 98
100 100 6 4 0 0 0 0 0 0 58 100 100 100 100 100 100 100 100 100 100 100 100 100 100 100 100 100 100 100 100 100
5 5 5 0 0 0 0 0 0 0 0 18 92 100 100 100 100 100 100 100 100 100 100 100 100 100 100 100 100 100 100 100
0 4 39 25 14 18 2 0 0 0 0 14 84 100 74 100 100 100 100 100 100 100 100 100 100 100 100 100 100 100 100 100
0 0 13 36 19 2 8 41 0 0 0 6 46 100 100 99 100 100 100 100 100 100 100 100 100 100 100 100 100 100 100 100
98 74 71 100 100 97 2 2 15 0 2 0 30 100 100 75 100 100 100 100 100 100 100 100 100 100 100 100 100 100 100 100
100 100 89 100 100 100 94 74 34 0 0 5 40 100 100 100 100 100 100 100 100 100 100 100 100 100 100 100 100 100 100 100
100 100 93 100 100 100 100 100 98 18 1 71 83 100 100 100 100 100 100 100 100 100 100 100 100 100 100 100 100 100 100 100
100 100 100 100 100 100 100 100 100 100 75 66 100 100 100 100 100 97 100 100 100 100 100 100 100 100 100 100 100 100 100 100
100 100 100 100 100 100 100 100 100 100 100 100 100 100 100 79 100 100 100 100 100 100 91 100 100 100 100 100 100 100 100 100
100 100 100 100 100 100 100 100 100 100 100 100 100 100 100 99 100 100 100 100 100 100 100 100 100 100 100 100 100 100 100 100
100 100 100 100 100 100 100 100 100 100 100 100 100 100 100 100 100 100 100 100 100 100 100 100 100 100 100 100 100 100 100 100
100 100 100 100 100 100 100 100 100 100 100 100 100 100 100 100 100 100 100 100 100 100 100 100 100 100 100 100 100 100 100 100
100 100 100 100 100 100 100 100 100 100 100 100 100 100 100 100 100 100 100 100 100 100 100 100 100 100 100 100 100 100 100 100
100 100 100 100 100 100 100 100 100 100 100 100 100 100 100 100 100 100 100 100 100 100 100 100 100 100 100 100 100 100 100 100
100 100 100 100 100 100 100 100 100 100 100 100 100 100 100 100 100 100 100 100 100 100 100 100 100 100 100 100 100 96 94 98
100 100 100 100 100 100 100 100 100 100 100 100 100 100 100 100 100 100 100 100 100 100 100 100 100 100 100 100 100 100 100 100
100 100 100 100 100 100 100 100 100 100 100 100 100 100 100 100 100 100 100 100 100 100 100 100 100 100 100 100 100 100 100 99
100 100 100 100 100 100 100 100 100 100 100 100 100 100 100 100 100 100 100 100 100 100 100 100 100 100 100 100 100 100 100 100

GFSFLT1_prec_cloud_111.txt.gz
Cloud_Cover
100 97 76 74 100 81 53 100 100 71 4 19 74 68 36 4 94 100 100 93 100 100 100 100 100 100 100 100 100 100 98 89
54 100 100 84 100 100 100 100 99 53 5 33 95 100 100 51 18 100 100 94 100 100 100 100 100 100 100 100 100 97 100 100
13 96 100 100 100 100 100 100 100 15 0 0 0 0 98 64 44 56 100 100 100 100 100 100 100 100 100 100 100 100 100 83
59 100 100 100 100 100 100 87 100 19 3 0 0 21 58 94 100 100 100 100 100 100 100 100 100 100 100 100 100 100 100 100
100 100 100 100 100 100 100 100 100 100 95 4 0 0 34 86 97 100 100 100 100 100 100 100 100 100 100 100 100 100 100 100
100 100 100 100 74 66 100 91 31 100 65 3 0 0 0 0 39 82 100 100 100 100 100 100 100 100 100 100 100 100 100 78
100 100 100 100 100 100 100 100 100 56 52 0 0 0 0 0 42 59 100 100 100 100 100 100 100 100 100 100 100 100 100 92
68 94 98 98 100 100 100 100 100 100 99 1 0 4 26 17 52 35 100 100 100 100 100 100 100 100 100 100 100 100 100 100
54 96 100 100 100 100 100 100 100 100 100 82 10 0 100 82 70 68 76 100 100 100 100 100 100 100 100 100 100 100 100 100
90 100 100 100 100 100 100 100 100 100 100 100 80 51 100 100 100 89 34 100 79 96 100 100 100 100 100 100 100 100 100 100
100 100 100 100 100 100 100 100 100 100 100 100 100 37 100 100 100 71 100 100 100 100 100 100 100 100 100 100 100 100 100 100
100 100 100 100 100 100 100 100 100 100 100 100 100 100 100 100 100 99 100 100 100 100 100 100 98 100 100 100 100 100 100 100
100 100 100 100 100 100 100 100 100 100 100 100 100 100 100 100 100 100 100 100 100 100 100 98 100 100 100 100 100 100 100 100
100 100 100 100 100 100 100 100 100 100 100 100 100 100 100 100 100 100 100 100 100 100 100 100 100 100 100 100 100 100 100 100
100 100 100 100 100 100 100 100 100 100 100 100 100 100 100 100 100 100 100 100 100 100 100 100 100 100 100 100 100 100 100 100
100 100 100 100 100 100 100 100 100 100 100 100 100 100 100 100 100 100 100 100 100 100 100 100 100 100 100 100 100 100 100 57
100 100 100 100 100 100 100 100 100 100 100 100 100 100 100 100 100 100 100 100 100 100 100 100 100 100 100 100 100 100 100 100
100 100 100 100 100 100 100 100 100 100 100 100 100 100 100 100 100 100 100 100 100 100 100 100 100 100 100 100 100 100 100 100
100 100 100 100 100 100 100 100 100 100 100 100 100 100 100 100 100 100 100 100 100 100 100 100 100 100 100 100 100 100 100 100

GFSFLT1_prec_cloud_114.txt.gz
Cloud_Cover
5 44 20 5 18 96 100 100 94 87 100 100 100 100 88 10 6 3 1 2 96 100 100 97 100 100 100 94 100 100 100 100
84 64 90 79 68 100 100 63 6 16 98 95 100 100 100 84 6 4 0 0 9 100 100 100 97 100 100 100 100 100 100 100
10 98 97 100 100 89 86 87 100 11 3 100 100 100 100 100 70 5 22 38 2 5 100 100 100 100 100 100 100 100 100 100
5 77 93 97 100 100 100 93 100 100 59 4 63 100 100 100 91 62 96 18 0 0 71 100 100 100 100 100 100 100 100 100
95 98 98 99 100 100 100 100 100 91 100 100 95 96 100 100 100 100 22 15 44 52 64 100 100 100 100 100 100 100 100 100
94 50 98 100 100 100 100 100 100 100 93 16 31 63 98 100 100 100 100 75 84 100 99 100 100 100 100 100 100 100 100 100
98 73 44 50 51 41 53 84 94 91 90 80 66 39 8 33 100 100 100 54 79 100 100 100 100 100 100 100 100 100 100 100
79 90 59 81 76 69 57 65 75 69 100 100 98 47 100 8 16 100 100 73 100 100 100 100 100 100 100 100 100 100 100 100
100 100 100 90 93 100 100 99 98 79 100 100 100 86 12 4 2 10 100 35 100 100 100 100 100 100 100 100 100 100 100 100
100 100 100 100 95 100 100 100 100 100 100 100 100 82 42 0 8 15 8 48 98 100 100 100 100 100 100 100 100 100 100 100
100 100 100 100 100 100 100 100 100 100 100 100 100 100 31 100 96 33 55 81 100 100 100 100 100 100 100 100 100 100 100 100
100 100 100 100 100 100 100 100 100 100 100 100 100 100 46 97 51 100 100 100 34 100 100 100 100 100 100 100 100 100 100 100
100 100 100 100 100 100 100 100 100 100 100 100 100 100 100 66 99 100 100 45 100 100 100 100 100 100 100 100 100 100 100 100
100 100 100 100 100 100 100 100 100 100 100 100 100 100 100 100 100 100 100 100 100 100 100 100 100 100 100 100 100 100 100 100
100 100 100 100 100 100 100 100 100 100 100 100 100 100 100 100 100 100 100 100 100 100 100 100 100 100 100 100 100 100 100 100
100 100 100 100 100 100 100 100 100 100 100 100 100 100 100 100 100 100 100 100 100 100 100 100 100 100 100 100 100 100 100 100
100 100 100 100 100 100 100 100 100 100 100 100 100 100 100 100 100 100 100 100 100 100 100 100 100 100 100 100 100 100 100 100
100 100 100 100 100 100 100 100 100 100 100 100 100 100 100 100 100 100 100 100 100 100 100 100 100 100 100 100 100 100 100 100
100 100 100 100 100 100 100 99 100 100 100 100 100 100 100 100 100 100 100 100 100 100 100 100 100 100 100 100 100 100 100 100

GFSFLT1_prec_cloud_117.txt.gz
Cloud_Cover
100 100 68 82 28 5 2 5 5 13 80 99 100 69 77 62 99 100 100 100 100 93 5 40 69 97 65 100 100 100 100 100
100 100 96 77 18 5 5 5 0 4 5 36 100 100 100 100 100 100 100 100 100 100 72 4 5 76 48 70 92 89 100 100
71 53 18 5 5 2 5 94 48 35 23 61 81 69 38 12 24 89 100 100 100 100 89 46 13 30 99 100 92 100 100 100
5 5 5 4 5 3 4 0 29 91 46 6 16 81 67 5 33 30 100 100 100 100 100 22 0 17 90 100 100 100 100 100
5 5 5 5 5 8 35 47 18 86 100 100 85 4 4 5 6 100 36 100 100 100 100 54 4 27 28 99 100 100 100 100
100 100 89 83 65 74 74 92 88 100 100 100 81 94 95 100 85 84 100 18 100 100 100 93 57 61 31 79 100 100 100 100
100 100 69 100 100 100 100 100 99 81 94 97 100 84 52 19 9 100 100 95 68 100 100 100 43 76 83 57 100 88 100 100
90 94 99 100 100 100 100 100 100 98 89 100 100 100 90 97 100 45 100 100 100 100 100 100 100 97 100 96 92 93 100 100
99 78 100 100 100 100 100 100 100 100 100 100 96 100 100 77 31 72 100 100 100 100 100 100 100 98 100 100 100 100 100 100
100 100 100 100 100 100 100 100 100 100 100 100 100 100 100 100 30 2 22 77 100 99 71 99 100 100 100 100 97 100 100 100
100 100 100 93 81 100 100 100 100 100 100 100 100 100 100 100 98 0 0 0 57 31 98 55 100 100 100 100 100 100 100 100
100 91 91 100 100 93 100 100 100 100 100 100 100 100 100 100 100 0 0 0 0 34 67 50 100 100 100 100 100 100 100 100
100 100 100 100 100 100 100 100 100 100 100 100 100 100 100 100 96 91 65 11 9 99 96 57 64 100 100 100 100 100 100 100
100 100 100 100 100 100 100 100 100 100 100 100 100 100 100 100 100 100 100 85 100 93 100 98 99 100 100 100 100 100 100 100
100 100 100 100 100 100 100 100 100 100 100 100 100 100 100 100 100 100 100 100 100 100 100 100 100 100 100 100 100 100 100 100
100 100 100 100 100 100 100 100 100 100 100 100 100 100 100 100 100 100 100 100 100 100 100 100 100 100 100 100 100 100 100 100
100 100 100 100 100 100 100 100 100 100 100 100 100 100 100 100 100 100 100 100 100 100 100 100 100 100 100 100 100 100 100 100
100 100 100 100 100 100 100 100 100 100 100 100 100 100 100 100 100 100 100 100 100 100 100 100 100 100 100 100 100 100 100 100
100 100 100 100 100 100 100 94 100 100 100 100 100 100 100 100 100 100 100 100 100 100 100 100 100 100 100 100 100 100 100 100

GFSFLT1_prec_cloud_120.txt.gz
Cloud_Cover
7 84 100 100 100 100 100 99 97 79 34 17 6 8 2 5 53 51 55 97 94 18 96 91 80 100 71 98 56 6 100 100
0 1 15 100 100 100 100 100 100 100 100 50 71 40 5 49 1 8 100 100 100 100 76 96 37 44 100 100 69 5 6 100
0 0 0 12 98 100 100 100 100 100 100 100 65 14 6 7 35 5 10 88 100 100 100 100 100 19 73 100 100 5 68 62
0 3 1 0 2 10 18 36 33 22 5 5 5 5 21 39 6 22 26 5 42 84 100 100 100 30 24 61 65 33 5 58
2 0 2 5 5 5 5 5 4 5 11 5 47 29 34 67 100 93 100 90 16 92 62 93 98 10 64 100 100 52 12 5
100 56 6 5 5 5 5 5 5 5 53 100 100 88 8 5 5 5 15 98 85 5 100 74 100 13 98 100 83 100 23 48
48 92 59 28 5 5 9 6 60 38 8 64 100 100 100 63 70 9 34 16 100 34 37 74 94 100 97 100 100 100 96 30
89 41 56 64 82 60 76 99 100 100 88 87 100 100 100 100 100 100 99 82 94 100 16 96 100 92 16 34 100 100 98 84
61 66 74 94 100 100 100 100 100 98 100 100 100 100 100 100 100 100 100 100 8 100 100 100 100 95 100 54 84 100 100 100
100 100 100 100 100 98 100 100 100 86 100 100 100 100 100 100 100 100 96 0 0 3 100 5 99 100 100 100 74 100 100 100
98 87 72 92 80 87 96 53 86 100 100 100 100 100 100 100 100 100 100 38 6 0 0 28 100 100 100 100 100 100 100 100
91 76 92 97 76 91 99 96 100 100 100 100 100 100 100 100 100 100 98 97 6 0 2 100 100 100 100 100 100 100 100 100
81 98 100 100 100 100 100 100 100 100 100 100 100 100 100 100 100 100 100 99 40 96 22 100 100 100 100 100 100 100 100 100
100 100 100 100 100 100 100 100 100 100 100 100 100 100 100 100 100 100 100 100 100 100 100 100 100 100 100 100 100 100 100 100
100 100 100 100 100 100 100 100 100 100 100 100 100 100 100 100 100 100 100 100 100 100 100 100 100 100 100 100 100 100 100 100
100 100 100 100 100 100 100 100 100 100 100 100 100 100 100 100 100 100 100 100 100 100 100 100 100 100 100 100 100 100 100 100
100 100 100 100 100 100 100 100 100 100 100 100 100 100 100 100 100 100 100 100 100 100 100 100 100 100 100 100 100 100 100 100
100 100 100 100 100 100 100 100 100 100 100 100 100 100 100 100 100 100 100 100 100 100 100 100 100 100 100 100 100 100 100 100
100 100 100 100 100 100 100 100 100 100 100 100 100 100 100 100 100 100 100 100 100 100 100 100 100 100 100 100 100 100 100 100

GFSFLT1_prec_cloud_123.txt.gz
Cloud_Cover
0 2 1 0 1 7 5 12 100 100 100 100 100 100 100 79 27 29 78 96 100 100 100 100 100 99 5 4 0 9 26 100
0 0 0 0 0 0 0 0 0 25 100 100 100 100 100 100 30 30 10 8 76 100 100 96 100 100 47 4 0 0 6 87
0 0 0 0 0 0 0 0 0 0 1 87 100 100 100 100 100 73 50 3 14 48 92 100 100 100 100 9 5 4 5 3
0 0 0 0 0 0 0 0 0 5 5 12 19 100 100 100 100 100 92 94 14 5 82 100 100 100 100 30 11 24 5 43
55 84 6 0 0 4 5 1 0 0 5 82 35 4 45 100 100 100 90 87 54 6 9 100 100 100 100 98 8 15 63 100
98 61 35 100 100 100 100 87 7 5 5 5 30 18 2 31 12 58 85 11 96 43 84 12 98 100 100 100 76 100 100 100
40 32 5 5 47 94 65 60 74 61 5 5 5 6 7 20 61 18 5 3 16 84 99 92 10 70 100 100 100 100 100 100
6 34 5 5 5 6 42 61 56 54 15 5 5 33 86 74 74 95 75 10 6 45 100 99 14 5 5 66 100 100 100 100
23 15 6 25 36 49 78 97 100 95 41 55 49 74 100 100 100 100 96 76 67 34 58 100 100 5 7 2 89 100 100 100
39 44 48 64 51 97 100 100 98 97 100 100 100 100 100 100 100 100 100 90 75 46 88 100 100 45 0 2 74 82 100 100
45 51 60 36 52 98 100 68 99 98 98 100 100 100 100 100 100 100 100 100 100 100 98 100 100 100 5 0 47 100 100 100
66 47 36 60 81 99 100 96 100 88 100 100 100 100 100 100 100 100 100 100 100 63 100 97 25 98 95 2 4 100 100 100
70 71 80 100 100 100 100 100 100 100 100 100 100 100 100 100 100 100 100 100 100 100 100 100 76 61 23 3 3 100 100 100
74 97 100 100 100 100 100 100 100 100 100 100 100 100 100 100 100 100 100 100 100 100 100 100 100 100 100 100 97 100 100 100
100 100 100 100 100 100 100 100 100 100 100 100 100 100 100 100 100 100 100 100 100 100 100 100 100 100 100 100 100 100 99 99
100 100 100 100 100 100 100 100 100 100 100 100 100 100 100 100 100 100 100 100 100 100 100 100 100 100 100 100 100 100 100 100
100 100 100 100 100 100 100 100 100 100 100 100 100 100 100 100 100 100 100 100 100 100 100 100 100 100 100 100 100 100 100 100
100 100 100 100 100 100 100 100 100 100 100 100 100 100 100 100 100 100 100 100 100 100 100 100 100 100 100 100 100 100 100 100
100 100 100 100 100 100 100 100 100 100 100 100 100 100 100 100 100 100 100 100 100 100 100 100 100 100 100 100 100 100 100 100

GFSFLT1_prec_cloud_126.txt.gz
Cloud_Cover
14 81 99 44 4 0 0 0 0 0 0 0 5 93 0 5 2 16 100 100 100 100 100 100 100 100 100 100 86 97 100 100
5 14 9 0 0 0 0 0 0 0 0 0 0 0 24 5 11 75 46 100 100 100 100 100 100 100 100 100 100 100 100 61
0 0 0 0 0 0 0 0 0 0 0 0 0 0 2 0 85 18 100 38 90 100 100 100 100 100 100 100 100 100 100 100
0 0 0 0 0 0 2 2 0 0 0 0 1 0 0 5 3 67 88 62 30 31 98 100 100 100 100 100 100 100 100 100
2 5 5 5 5 5 5 5 5 5 5 5 5 5 5 4 6 52 6 64 100 93 95 98 100 100 100 100 100 100 100 98
5 5 5 5 5 5 6 6 5 20 66 89 14 5 5 5 5 81 99 50 5 74 100 98 60 100 100 100 87 100 56 99
20 5 5 5 5 22 52 54 5 5 7 13 70 49 11 16 5 5 78 79 99 40 5 44 86 61 97 100 29 92 83 100
55 53 91 64 69 100 100 98 42 85 99 100 95 100 100 99 71 31 45 93 7 98 95 5 5 5 66 99 55 20 68 100
34 21 66 99 100 100 100 66 100 100 100 100 100 100 100 100 100 100 100 100 100 73 87 100 92 8 0 56 99 63 20 100
34 60 100 100 100 100 100 100 100 100 100 100 100 100 100 100 100 100 100 100 100 100 100 81 65 24 12 0 19 58 32 37
68 100 94 90 92 79 92 72 98 99 97 100 100 100 100 100 100 100 100 100 100 100 100 100 100 100 90 8 49 12 67 22
54 75 22 80 95 91 100 100 100 100 100 98 100 100 100 100 100 100 100 100 100 100 100 100 100 100 100 75 24 91 42 28
68 66 72 100 99 100 100 100 100 100 100 100 100 100 100 100 100 100 100 100 100 100 100 100 100 100 100 100 81 99 100 90
77 76 95 100 100 100 100 100 100 100 100 100 100 100 100 100 100 100 100 100 100 100 100 100 100 100 100 100 100 95 100 100
97 100 100 100 100 99 100 100 100 100 100 100 100 100 100 100 100 100 100 100 100 100 100 100 100 100 100 100 100 100 100 100
100 100 100 100 100 100 100 100 100 100 100 100 100 100 100 100 100 100 100 100 100 100 100 100 100 100 100 100 100 100 100 100
100 100 100 100 100 100 100 100 100 100 100 100 100 100 100 100 100 100 100 100 100 100 100 100 100 100 100 100 100 100 100 100
100 100 100 100 100 100 100 100 100 100 100 100 100 100 100 100 100 100 100 100 100 100 100 100 100 100 100 100 100 100 98 100
100 100 100 100 100 100 100 100 100 100 100 100 100 100 100 100 100 100 100 100 100 100 100 100 100 100 100 100 100 100 100 100

GFSFLT1_prec_cloud_129.txt.gz
Cloud_Cover
46 100 89 100 98 100 58 41 3 7 3 0 0 0 0 0 0 0 0 26 14 99 100 100 100 100 100 100 100 100 100 100
10 7 5 5 1 7 88 91 93 7 2 3 0 0 0 0 0 0 0 1 26 87 100 100 100 100 100 100 100 100 100 100
5 5 5 3 2 4 5 5 5 5 5 5 5 5 0 0 0 0 4 0 1 81 64 81 100 100 100 100 100 100 100 100
4 4 1 2 5 5 5 5 5 5 5 5 5 5 5 3 0 0 0 0 0 8 84 38 98 100 100 100 100 100 100 100
5 5 5 5 5 14 14 17 5 5 5 5 5 5 5 5 5 5 5 3 0 0 31 48 98 100 100 100 100 100 100 100
5 5 5 5 7 74 98 100 26 42 77 98 100 100 94 83 66 14 6 5 0 0 3 75 14 51 100 100 100 100 100 100
5 5 9 44 96 100 92 93 55 100 100 100 100 100 100 100 100 100 99 83 36 28 8 12 36 63 40 100 100 100 100 100
9 66 100 100 100 85 57 64 100 100 100 100 100 100 100 100 100 100 100 100 100 100 100 98 12 5 5 69 84 100 100 100
24 72 100 100 100 26 77 86 100 64 100 100 100 100 100 100 100 100 100 100 100 100 100 100 100 77 74 100 82 26 100 100
35 90 55 92 94 64 91 99 69 65 93 82 99 100 100 100 100 100 100 100 100 100 100 100 100 100 100 99 37 12 19 78
16 69 24 79 64 39 44 45 97 98 94 86 98 100 100 100 100 100 100 100 100 100 100 100 100 100 100 100 100 95 6 5
22 14 6 12 26 34 85 100 100 100 100 100 100 100 100 100 100 100 100 100 100 100 100 100 100 100 100 100 100 100 96 92
11 5 5 6 43 95 100 100 96 82 100 100 100 100 100 100 100 100 100 100 100 100 100 100 100 100 100 100 100 100 100 77
5 5 9 40 99 100 100 100 100 100 100 100 100 100 100 100 100 100 100 100 100 100 100 100 100 100 100 100 100 100 100 100
59 85 77 100 100 100 100 100 100 100 100 100 100 100 100 100 100 100 100 100 100 100 100 100 100 100 100 100 100 100 100 100
100 100 100 100 100 100 100 100 100 100 100 100 100 100 100 100 100 100 100 100 100 100 100 100 100 100 100 100 100 100 100 100
100 100 100 100 100 100 100 100 100 100 100 100 100 100 100 100 100 100 100 100 100 100 100 100 100 100 100 100 100 100 100 100
100 100 100 100 100 100 100 100 100 100 100 100 100 100 100 100 100 100 100 100 100 100 100 100 100 100 100 100 100 100 100 100
100 100 100 100 100 100 100 100 100 100 100 99 100 100 100 100 100 100 100 100 100 100 100 100 100 100 100 100 100 100 100 100